Time,TemperatureF,DewpointF,PressureIn,WindDirection,WindDirectionDegrees,WindSpeedMPH,WindSpeedGustMPH,Humidity,HourlyPrecipIn,Conditions,Clouds,dailyrainin,SoftwareType,DateUTC
2013-02-04 00:01:00,58.5,58.5,29.71,SE,135,11.5,11.5,100,0.00,CLR,,0.00,WeatherDisplay:10.37,2013-02-03 22:01:00,
2013-02-04 00:02:00,58.5,58.5,29.71,South,180,6.0,6.0,100,0.00,CLR,,0.00,WeatherDisplay:10.37,2013-02-03 22:02:00,
2013-02-04 00:03:00,58.5,58.5,29.71,SSE,158,11.5,11.5,100,0.00,CLR,,0.00,WeatherDisplay:10.37,2013-02-03 22:03:00,
2013-02-04 00:04:00,58.5,58.5,29.71,SSE,158,11.5,11.5,100,0.00,CLR,,0.00,WeatherDisplay:10.37,2013-02-03 22:04:00,
2013-02-04 00:06:00,58.5,58.5,29.71,SSE,158,12.7,12.7,100,0.00,CLR,,0.00,WeatherDisplay:10.37,2013-02-03 22:06:00,
2013-02-04 00:07:00,58.5,58.5,29.71,SSE,158,11.5,11.5,100,0.00,CLR,,0.00,WeatherDisplay:10.37,2013-02-03 22:07:00,
2013-02-04 00:08:00,58.5,58.5,29.71,SSE,158,11.5,11.5,100,0.00,CLR,,0.00,WeatherDisplay:10.37,2013-02-03 22:08:00,
2013-02-04 00:09:00,58.5,58.5,29.71,SSE,158,10.4,10.4,100,0.00,CLR,,0.00,WeatherDisplay:10.37,2013-02-03 22:09:00,
2013-02-04 00:11:00,58.5,58.5,29.71,SSE,158,10.4,10.4,100,0.00,CLR,,0.00,WeatherDisplay:10.37,2013-02-03 22:11:00,
2013-02-04 00:12:00,58.5,58.5,29.71,SSE,158,10.4,10.4,100,0.00,CLR,,0.00,WeatherDisplay:10.37,2013-02-03 22:12:00,
2013-02-04 00:13:00,58.5,58.5,29.71,SSE,158,10.4,10.4,100,0.00,CLR,,0.00,WeatherDisplay:10.37,2013-02-03 22:13:00,
2013-02-04 00:14:00,58.5,58.5,29.71,ESE,112,12.7,12.7,100,0.00,CLR,,0.00,WeatherDisplay:10.37,2013-02-03 22:14:00,
2013-02-04 00:16:00,58.5,58.5,29.71,SSE,158,8.1,8.1,100,0.00,CLR,,0.00,WeatherDisplay:10.37,2013-02-03 22:16:00,
2013-02-04 00:17:00,58.5,58.5,29.71,SSE,158,5.8,5.8,100,0.00,CLR,,0.00,WeatherDisplay:10.37,2013-02-03 22:17:00,
2013-02-04 00:18:00,58.3,58.3,29.71,ESE,112,10.4,10.4,100,0.00,CLR,,0.00,WeatherDisplay:10.37,2013-02-03 22:18:00,
2013-02-04 00:19:00,58.3,58.3,29.71,SE,135,10.4,10.4,100,0.00,CLR,,0.00,WeatherDisplay:10.37,2013-02-03 22:19:00,
2013-02-04 00:21:00,58.5,58.5,29.71,ESE,112,9.2,9.2,100,0.00,CLR,,0.00,WeatherDisplay:10.37,2013-02-03 22:21:00,
2013-02-04 00:22:00,58.3,58.3,29.71,SSE,158,6.9,6.9,100,0.00,CLR,,0.00,WeatherDisplay:10.37,2013-02-03 22:22:00,
2013-02-04 00:24:00,58.5,58.5,29.71,SSE,158,8.1,8.1,100,0.00,CLR,,0.00,WeatherDisplay:10.37,2013-02-03 22:24:00,
2013-02-04 00:26:00,58.5,58.5,29.71,SSE,158,11.5,11.5,100,0.00,CLR,,0.00,WeatherDisplay:10.37,2013-02-03 22:26:00,
2013-02-04 00:28:00,58.3,58.3,29.71,ESE,112,11.5,11.5,100,0.00,CLR,,0.00,WeatherDisplay:10.37,2013-02-03 22:28:00,
2013-02-04 00:29:00,58.3,58.3,29.71,SSE,158,8.1,8.1,100,0.00,CLR,,0.00,WeatherDisplay:10.37,2013-02-03 22:29:00,
2013-02-04 00:31:00,58.5,58.5,29.71,SSE,158,11.5,11.5,100,0.00,CLR,,0.00,WeatherDisplay:10.37,2013-02-03 22:31:00,
2013-02-04 00:33:00,58.3,58.3,29.71,SSW,202,10.4,10.4,100,0.00,CLR,,0.00,WeatherDisplay:10.37,2013-02-03 22:33:00,
2013-02-04 00:34:00,58.3,58.3,29.71,SE,135,8.1,8.1,100,0.00,CLR,,0.00,WeatherDisplay:10.37,2013-02-03 22:34:00,
2013-02-04 00:36:00,58.3,58.3,29.71,SSE,158,5.8,5.8,100,0.00,CLR,,0.00,WeatherDisplay:10.37,2013-02-03 22:36:00,
2013-02-04 00:38:00,58.3,58.3,29.71,SSE,158,10.4,10.4,100,0.00,CLR,,0.00,WeatherDisplay:10.37,2013-02-03 22:38:00,
2013-02-04 00:39:00,58.3,58.3,29.71,South,180,10.4,10.4,100,0.00,CLR,,0.00,WeatherDisplay:10.37,2013-02-03 22:39:00,
2013-02-04 00:41:00,58.3,58.3,29.71,SE,135,6.0,6.7,100,0.00,CLR,,0.00,WeatherDisplay:10.37,2013-02-03 22:41:00,
2013-02-04 00:43:00,58.3,58.3,29.71,SSE,158,10.2,10.2,100,0.00,CLR,,0.00,WeatherDisplay:10.37,2013-02-03 22:43:00,
2013-02-04 00:44:00,58.3,58.3,29.71,SSE,158,10.4,10.4,100,0.00,CLR,,0.00,WeatherDisplay:10.37,2013-02-03 22:44:00,
2013-02-04 00:45:00,58.3,58.3,29.71,SSE,158,10.4,10.4,100,0.00,CLR,,0.00,WeatherDisplay:10.37,2013-02-03 22:45:00,
2013-02-04 00:47:00,58.5,58.5,29.68,SE,135,9.2,9.2,100,0.00,CLR,,0.00,WeatherDisplay:10.37,2013-02-03 22:47:00,
2013-02-04 00:48:00,58.5,58.5,29.68,SE,135,8.1,8.1,100,0.00,CLR,,0.00,WeatherDisplay:10.37,2013-02-03 22:48:00,
2013-02-04 00:50:00,58.5,58.5,29.68,SSE,158,10.4,10.4,100,0.00,CLR,,0.00,WeatherDisplay:10.37,2013-02-03 22:50:00,
2013-02-04 00:52:00,58.3,58.3,29.68,SSE,158,5.8,5.8,100,0.00,CLR,,0.00,WeatherDisplay:10.37,2013-02-03 22:52:00,
2013-02-04 00:53:00,58.3,58.3,29.68,SSE,158,5.9,5.9,100,0.00,CLR,,0.00,WeatherDisplay:10.37,2013-02-03 22:53:00,
2013-02-04 00:55:00,58.3,58.3,29.68,ENE,68,6.9,6.9,100,0.00,CLR,,0.00,WeatherDisplay:10.37,2013-02-03 22:55:00,
2013-02-04 00:57:00,58.3,58.3,29.68,South,180,10.7,10.7,100,0.00,CLR,,0.00,WeatherDisplay:10.37,2013-02-03 22:57:00,
2013-02-04 00:59:00,58.3,58.3,29.68,ESE,112,10.4,10.4,100,0.00,CLR,,0.00,WeatherDisplay:10.37,2013-02-03 22:59:00,
2013-02-04 01:00:00,58.3,58.3,29.68,SSW,202,8.1,8.1,100,0.00,CLR,,0.00,WeatherDisplay:10.37,2013-02-03 23:00:00,
2013-02-04 01:03:00,58.3,58.3,29.71,SSE,158,6.9,6.9,100,0.00,CLR,,0.00,WeatherDisplay:10.37,2013-02-03 23:03:00,
2013-02-04 01:04:00,58.3,58.3,29.71,SSE,158,8.1,8.1,100,0.00,CLR,,0.00,WeatherDisplay:10.37,2013-02-03 23:04:00,
2013-02-04 01:05:00,58.3,58.3,29.71,SE,135,8.1,8.1,100,0.00,CLR,,0.00,WeatherDisplay:10.37,2013-02-03 23:05:00,
2013-02-04 01:08:00,58.3,58.3,29.71,SSE,158,9.2,9.2,100,0.00,CLR,,0.00,WeatherDisplay:10.37,2013-02-03 23:08:00,
2013-02-04 01:09:00,58.3,58.3,29.71,SE,135,8.1,8.1,100,0.00,CLR,,0.00,WeatherDisplay:10.37,2013-02-03 23:09:00,
2013-02-04 01:10:00,58.3,58.3,29.71,SSE,158,8.1,8.1,100,0.00,CLR,,0.00,WeatherDisplay:10.37,2013-02-03 23:10:00,
2013-02-04 01:13:00,58.1,58.1,29.71,South,180,10.4,10.4,100,0.00,CLR,,0.00,WeatherDisplay:10.37,2013-02-03 23:13:00,
2013-02-04 01:14:00,58.1,58.1,29.71,SE,135,6.9,6.9,100,0.00,CLR,,0.00,WeatherDisplay:10.37,2013-02-03 23:14:00,
2013-02-04 01:15:00,58.3,58.3,29.71,SSE,158,10.4,10.4,100,0.00,CLR,,0.00,WeatherDisplay:10.37,2013-02-03 23:15:00,
2013-02-04 01:18:00,58.3,58.3,29.68,SSE,158,13.8,13.8,100,0.00,CLR,,0.00,WeatherDisplay:10.37,2013-02-03 23:18:00,
2013-02-04 01:19:00,58.3,58.3,29.68,SSE,158,13.8,13.8,100,0.00,CLR,,0.00,WeatherDisplay:10.37,2013-02-03 23:19:00,
2013-02-04 01:20:00,58.3,58.3,29.68,ESE,112,10.4,10.4,100,0.00,CLR,,0.00,WeatherDisplay:10.37,2013-02-03 23:20:00,
2013-02-04 01:23:00,58.3,58.3,29.68,SSE,158,12.7,12.7,100,0.00,CLR,,0.00,WeatherDisplay:10.37,2013-02-03 23:23:00,
2013-02-04 01:24:00,58.5,58.5,29.68,SE,135,16.1,16.1,100,0.00,CLR,,0.00,WeatherDisplay:10.37,2013-02-03 23:24:00,
2013-02-04 01:25:00,58.5,58.5,29.68,SE,135,16.1,16.1,100,0.00,CLR,,0.00,WeatherDisplay:10.37,2013-02-03 23:25:00,
2013-02-04 01:28:00,58.5,58.5,29.68,SE,135,12.7,12.7,100,0.00,CLR,,0.00,WeatherDisplay:10.37,2013-02-03 23:28:00,
2013-02-04 01:29:00,58.5,58.5,29.68,SSE,158,12.7,12.7,100,0.00,CLR,,0.00,WeatherDisplay:10.37,2013-02-03 23:29:00,
2013-02-04 01:30:00,58.3,58.3,29.68,SE,135,6.9,6.9,100,0.00,CLR,,0.00,WeatherDisplay:10.37,2013-02-03 23:30:00,
2013-02-04 01:33:00,58.5,58.5,29.71,SSE,158,12.7,12.7,100,0.00,CLR,,0.00,WeatherDisplay:10.37,2013-02-03 23:33:00,
2013-02-04 01:34:00,58.5,58.5,29.71,SE,135,11.5,11.5,100,0.00,CLR,,0.00,WeatherDisplay:10.37,2013-02-03 23:34:00,
2013-02-04 01:35:00,58.5,58.5,29.71,SSE,158,9.2,9.2,100,0.00,CLR,,0.00,WeatherDisplay:10.37,2013-02-03 23:35:00,
2013-02-04 01:36:00,58.5,58.5,29.71,SSE,158,9.2,9.2,100,0.00,CLR,,0.00,WeatherDisplay:10.37,2013-02-03 23:36:00,
2013-02-04 01:38:00,58.5,58.5,29.71,SSE,158,8.1,8.1,100,0.00,CLR,,0.00,WeatherDisplay:10.37,2013-02-03 23:38:00,
2013-02-04 01:39:00,58.3,58.3,29.71,ESE,112,8.1,8.1,100,0.00,CLR,,0.00,WeatherDisplay:10.37,2013-02-03 23:39:00,
2013-02-04 01:40:00,58.3,58.3,29.71,SSE,158,4.6,4.6,100,0.00,CLR,,0.00,WeatherDisplay:10.37,2013-02-03 23:40:00,
2013-02-04 01:41:00,58.3,58.3,29.71,SSE,158,4.6,4.6,100,0.00,CLR,,0.00,WeatherDisplay:10.37,2013-02-03 23:41:00,
2013-02-04 01:43:00,58.3,58.3,29.71,SSE,158,4.6,4.6,100,0.00,CLR,,0.00,WeatherDisplay:10.37,2013-02-03 23:43:00,
2013-02-04 01:45:00,58.1,58.1,29.71,SSE,158,4.6,4.6,100,0.00,CLR,,0.00,WeatherDisplay:10.37,2013-02-03 23:45:00,
2013-02-04 01:46:00,58.1,58.1,29.71,SSE,158,3.6,3.6,100,0.00,CLR,,0.00,WeatherDisplay:10.37,2013-02-03 23:46:00,
2013-02-04 01:49:00,57.9,57.9,29.71,SSE,158,4.6,4.6,100,0.00,CLR,,0.00,WeatherDisplay:10.37,2013-02-03 23:49:00,
2013-02-04 01:50:00,57.9,57.9,29.71,SSE,158,5.9,5.9,100,0.00,CLR,,0.00,WeatherDisplay:10.37,2013-02-03 23:50:00,
2013-02-04 01:51:00,58.1,58.1,29.71,SE,135,6.9,6.9,100,0.00,CLR,,0.00,WeatherDisplay:10.37,2013-02-03 23:51:00,
2013-02-04 01:54:00,58.1,58.1,29.71,SSE,158,6.9,6.9,100,0.00,CLR,,0.00,WeatherDisplay:10.37,2013-02-03 23:54:00,
2013-02-04 01:55:00,57.9,57.9,29.71,South,180,8.1,8.1,100,0.00,CLR,,0.00,WeatherDisplay:10.37,2013-02-03 23:55:00,
2013-02-04 01:56:00,57.9,57.9,29.71,South,180,8.1,8.1,100,0.00,CLR,,0.00,WeatherDisplay:10.37,2013-02-03 23:56:00,
2013-02-04 01:59:00,57.9,57.9,29.71,SSE,158,10.4,10.4,100,0.00,CLR,,0.00,WeatherDisplay:10.37,2013-02-03 23:59:00,
2013-02-04 02:00:00,57.9,57.9,29.71,SSE,158,8.1,8.1,100,0.00,CLR,,0.00,WeatherDisplay:10.37,2013-02-04 00:00:00,
2013-02-04 02:01:00,57.9,57.9,29.71,SSE,158,4.6,4.6,100,0.00,CLR,,0.00,WeatherDisplay:10.37,2013-02-04 00:01:00,
2013-02-04 02:04:00,57.9,57.9,29.71,SSE,158,8.1,8.1,100,0.00,CLR,,0.00,WeatherDisplay:10.37,2013-02-04 00:04:00,
2013-02-04 02:05:00,57.9,57.9,29.71,SE,135,9.2,9.2,100,0.00,CLR,,0.00,WeatherDisplay:10.37,2013-02-04 00:05:00,
2013-02-04 02:06:00,57.9,57.9,29.71,SSE,158,10.4,10.4,100,0.00,CLR,,0.00,WeatherDisplay:10.37,2013-02-04 00:06:00,
2013-02-04 02:09:00,57.9,57.9,29.71,SSE,158,6.9,6.9,100,0.00,CLR,,0.00,WeatherDisplay:10.37,2013-02-04 00:09:00,
2013-02-04 02:11:00,57.9,57.9,29.71,SSE,158,10.5,10.5,100,0.00,CLR,,0.00,WeatherDisplay:10.37,2013-02-04 00:11:00,
2013-02-04 02:12:00,57.9,57.9,29.71,SSE,158,10.7,10.7,100,0.00,CLR,,0.00,WeatherDisplay:10.37,2013-02-04 00:12:00,
2013-02-04 02:14:00,58.1,58.1,29.71,SSE,158,15.0,15.0,100,0.00,CLR,,0.00,WeatherDisplay:10.37,2013-02-04 00:14:00,
2013-02-04 02:16:00,58.1,58.1,29.71,SSE,158,10.4,10.4,100,0.00,CLR,,0.00,WeatherDisplay:10.37,2013-02-04 00:16:00,
2013-02-04 02:17:00,58.1,58.1,29.71,SSE,158,10.4,10.4,100,0.00,CLR,,0.00,WeatherDisplay:10.37,2013-02-04 00:17:00,
2013-02-04 02:19:00,58.1,58.1,29.71,SE,135,6.9,6.9,100,0.00,CLR,,0.00,WeatherDisplay:10.37,2013-02-04 00:19:00,
2013-02-04 02:21:00,58.1,58.1,29.71,SSE,158,4.7,4.7,100,0.00,CLR,,0.00,WeatherDisplay:10.37,2013-02-04 00:21:00,
2013-02-04 02:22:00,58.1,58.1,29.71,SSE,158,4.7,4.7,100,0.00,CLR,,0.00,WeatherDisplay:10.37,2013-02-04 00:22:00,
2013-02-04 02:25:00,57.9,57.9,29.71,SE,135,5.8,5.8,100,0.00,CLR,,0.00,WeatherDisplay:10.37,2013-02-04 00:25:00,
2013-02-04 02:26:00,57.9,57.9,29.71,SE,135,5.8,5.8,100,0.00,CLR,,0.00,WeatherDisplay:10.37,2013-02-04 00:26:00,
2013-02-04 02:27:00,57.9,57.9,29.71,SE,135,5.8,5.8,100,0.00,CLR,,0.00,WeatherDisplay:10.37,2013-02-04 00:27:00,
2013-02-04 02:30:00,57.9,57.9,29.71,SSE,158,10.5,10.5,100,0.00,CLR,,0.00,WeatherDisplay:10.37,2013-02-04 00:30:00,
2013-02-04 02:31:00,57.9,57.9,29.71,SSE,158,11.5,11.5,100,0.00,CLR,,0.00,WeatherDisplay:10.37,2013-02-04 00:31:00,
2013-02-04 02:32:00,57.9,57.9,29.71,SSE,158,6.9,6.9,100,0.00,CLR,,0.00,WeatherDisplay:10.37,2013-02-04 00:32:00,
2013-02-04 02:35:00,57.9,57.9,29.71,SSE,158,5.8,5.8,100,0.00,CLR,,0.00,WeatherDisplay:10.37,2013-02-04 00:35:00,
2013-02-04 02:36:00,57.7,57.7,29.71,SSE,158,6.9,6.9,100,0.00,CLR,,0.00,WeatherDisplay:10.37,2013-02-04 00:36:00,
2013-02-04 02:37:00,57.7,57.7,29.71,SE,135,8.7,8.7,100,0.00,CLR,,0.00,WeatherDisplay:10.37,2013-02-04 00:37:00,
2013-02-04 02:40:00,57.7,57.7,29.71,SSE,158,7.8,7.8,100,0.00,CLR,,0.00,WeatherDisplay:10.37,2013-02-04 00:40:00,
2013-02-04 02:41:00,57.7,57.7,29.71,SSE,158,5.8,5.8,100,0.00,CLR,,0.00,WeatherDisplay:10.37,2013-02-04 00:41:00,
2013-02-04 02:42:00,57.7,57.7,29.71,SSE,158,4.6,4.6,100,0.00,CLR,,0.00,WeatherDisplay:10.37,2013-02-04 00:42:00,
2013-02-04 02:45:00,57.7,57.7,29.71,SSW,202,5.8,6.9,100,0.00,CLR,,0.00,WeatherDisplay:10.37,2013-02-04 00:45:00,
2013-02-04 02:46:00,57.9,57.9,29.71,SSE,158,8.1,8.1,100,0.00,CLR,,0.00,WeatherDisplay:10.37,2013-02-04 00:46:00,
2013-02-04 02:47:00,57.9,57.9,29.71,SSE,158,11.5,11.5,100,0.00,CLR,,0.00,WeatherDisplay:10.37,2013-02-04 00:47:00,
2013-02-04 02:51:00,57.9,57.9,29.71,SSE,158,9.2,9.2,100,0.00,CLR,,0.00,WeatherDisplay:10.37,2013-02-04 00:51:00,
2013-02-04 02:52:00,57.9,57.9,29.71,SSE,158,10.4,10.4,100,0.00,CLR,,0.00,WeatherDisplay:10.37,2013-02-04 00:52:00,
2013-02-04 02:56:00,57.9,57.9,29.71,SSE,158,4.6,4.9,100,0.00,CLR,,0.00,WeatherDisplay:10.37,2013-02-04 00:56:00,
2013-02-04 02:57:00,57.9,57.9,29.71,SE,135,5.9,6.2,100,0.00,CLR,,0.00,WeatherDisplay:10.37,2013-02-04 00:57:00,
2013-02-04 02:58:00,57.9,57.9,29.71,South,180,8.1,8.1,100,0.00,CLR,,0.00,WeatherDisplay:10.37,2013-02-04 00:58:00,
2013-02-04 03:01:00,57.9,57.9,29.71,SSE,158,6.9,6.9,100,0.00,CLR,,0.00,WeatherDisplay:10.37,2013-02-04 01:01:00,
2013-02-04 03:02:00,57.9,57.9,29.71,SE,135,5.9,5.9,100,0.00,CLR,,0.00,WeatherDisplay:10.37,2013-02-04 01:02:00,
2013-02-04 03:03:00,57.9,57.9,29.71,SSE,158,6.9,6.9,100,0.00,CLR,,0.00,WeatherDisplay:10.37,2013-02-04 01:03:00,
2013-02-04 03:06:00,57.7,57.7,29.71,SSE,158,6.9,6.9,100,0.00,CLR,,0.00,WeatherDisplay:10.37,2013-02-04 01:06:00,
2013-02-04 03:07:00,57.7,57.7,29.71,SSE,158,5.8,5.8,100,0.00,CLR,,0.00,WeatherDisplay:10.37,2013-02-04 01:07:00,
2013-02-04 03:08:00,57.7,57.7,29.71,SSE,158,6.0,6.0,100,0.00,CLR,,0.00,WeatherDisplay:10.37,2013-02-04 01:08:00,
2013-02-04 03:11:00,57.6,57.6,29.71,SE,135,10.0,10.0,100,0.00,CLR,,0.00,WeatherDisplay:10.37,2013-02-04 01:11:00,
2013-02-04 03:12:00,57.6,57.6,29.71,SSE,158,10.4,10.4,100,0.00,CLR,,0.00,WeatherDisplay:10.37,2013-02-04 01:12:00,
2013-02-04 03:13:00,57.6,57.6,29.71,SSE,158,9.2,9.2,100,0.00,CLR,,0.00,WeatherDisplay:10.37,2013-02-04 01:13:00,
2013-02-04 03:16:00,57.6,57.6,29.71,ESE,112,5.8,5.8,100,0.00,CLR,,0.00,WeatherDisplay:10.37,2013-02-04 01:16:00,
2013-02-04 03:17:00,57.6,57.6,29.71,SSE,158,7.1,7.1,100,0.00,CLR,,0.00,WeatherDisplay:10.37,2013-02-04 01:17:00,
2013-02-04 03:19:00,57.6,57.6,29.71,SSE,158,5.8,5.8,100,0.00,CLR,,0.00,WeatherDisplay:10.37,2013-02-04 01:19:00,
2013-02-04 03:21:00,57.6,57.6,29.71,SSE,158,5.8,5.8,100,0.00,CLR,,0.00,WeatherDisplay:10.37,2013-02-04 01:21:00,
2013-02-04 03:22:00,57.6,57.6,29.71,SSE,158,5.8,5.8,100,0.00,CLR,,0.00,WeatherDisplay:10.37,2013-02-04 01:22:00,
2013-02-04 03:23:00,57.6,57.6,29.71,South,180,5.8,5.8,100,0.00,CLR,,0.00,WeatherDisplay:10.37,2013-02-04 01:23:00,
2013-02-04 03:24:00,57.6,57.6,29.71,SSE,158,4.6,4.6,100,0.00,CLR,,0.00,WeatherDisplay:10.37,2013-02-04 01:24:00,
2013-02-04 03:26:00,57.6,57.6,29.71,SE,135,9.2,9.2,100,0.00,CLR,,0.00,WeatherDisplay:10.37,2013-02-04 01:26:00,
2013-02-04 03:27:00,57.6,57.6,29.71,SSE,158,10.0,10.0,100,0.00,CLR,,0.00,WeatherDisplay:10.37,2013-02-04 01:27:00,
2013-02-04 03:28:00,57.6,57.6,29.71,SSE,158,11.5,11.5,100,0.00,CLR,,0.00,WeatherDisplay:10.37,2013-02-04 01:28:00,
2013-02-04 03:29:00,57.6,57.6,29.71,SSE,158,9.2,9.2,100,0.00,CLR,,0.00,WeatherDisplay:10.37,2013-02-04 01:29:00,
2013-02-04 03:31:00,57.6,57.6,29.71,SSE,158,11.2,11.2,100,0.00,CLR,,0.00,WeatherDisplay:10.37,2013-02-04 01:31:00,
2013-02-04 03:32:00,57.7,57.7,29.71,SE,135,12.7,12.7,100,0.00,CLR,,0.00,WeatherDisplay:10.37,2013-02-04 01:32:00,
2013-02-04 03:33:00,57.7,57.7,29.71,SSE,158,11.5,11.5,100,0.00,CLR,,0.00,WeatherDisplay:10.37,2013-02-04 01:33:00,
2013-02-04 03:34:00,57.7,57.7,29.71,SSE,158,12.7,12.7,100,0.00,CLR,,0.00,WeatherDisplay:10.37,2013-02-04 01:34:00,
2013-02-04 03:37:00,57.7,57.7,29.71,ESE,112,9.2,9.2,100,0.00,CLR,,0.00,WeatherDisplay:10.37,2013-02-04 01:37:00,
2013-02-04 03:38:00,57.9,57.9,29.71,SE,135,15.0,15.0,100,0.00,CLR,,0.00,WeatherDisplay:10.37,2013-02-04 01:38:00,
2013-02-04 03:40:00,57.9,57.9,29.71,SSE,158,6.9,6.9,100,0.00,CLR,,0.00,WeatherDisplay:10.37,2013-02-04 01:40:00,
2013-02-04 03:42:00,57.9,57.9,29.71,ESE,112,12.7,12.7,100,0.00,CLR,,0.00,WeatherDisplay:10.37,2013-02-04 01:42:00,
2013-02-04 03:43:00,57.9,57.9,29.71,SE,135,11.5,11.5,100,0.00,CLR,,0.00,WeatherDisplay:10.37,2013-02-04 01:43:00,
2013-02-04 03:45:00,57.9,57.9,29.71,SSE,148,7.0,13.0,100,0.00,CLR,,0.00,WeatherDisplay:10.37,2013-02-04 01:45:00,
2013-02-04 03:47:00,57.9,57.9,29.71,SE,135,13.8,13.8,100,0.00,CLR,,0.00,WeatherDisplay:10.37,2013-02-04 01:47:00,
2013-02-04 03:48:00,57.9,57.9,29.71,SSE,158,10.4,10.4,100,0.00,CLR,,0.00,WeatherDisplay:10.37,2013-02-04 01:48:00,
2013-02-04 03:50:00,58.1,58.1,29.71,South,180,13.2,13.2,100,0.00,CLR,,0.00,WeatherDisplay:10.37,2013-02-04 01:50:00,
2013-02-04 03:52:00,58.1,58.1,29.71,SSE,158,10.4,10.4,100,0.00,CLR,,0.00,WeatherDisplay:10.37,2013-02-04 01:52:00,
2013-02-04 03:53:00,58.1,58.1,29.71,SSE,158,9.2,9.2,100,0.00,CLR,,0.00,WeatherDisplay:10.37,2013-02-04 01:53:00,
2013-02-04 03:55:00,58.1,58.1,29.71,ESE,112,11.5,11.5,100,0.00,CLR,,0.00,WeatherDisplay:10.37,2013-02-04 01:55:00,
2013-02-04 03:57:00,57.9,57.9,29.71,SSE,158,11.5,11.5,100,0.00,CLR,,0.00,WeatherDisplay:10.37,2013-02-04 01:57:00,
2013-02-04 03:58:00,57.9,57.9,29.71,SE,135,9.2,9.2,100,0.00,CLR,,0.00,WeatherDisplay:10.37,2013-02-04 01:58:00,
2013-02-04 04:00:00,57.9,57.9,29.71,ESE,112,9.2,9.2,100,0.00,CLR,,0.00,WeatherDisplay:10.37,2013-02-04 02:00:00,
2013-02-04 04:02:00,57.9,57.9,29.71,SE,135,11.5,11.5,100,0.00,CLR,,0.00,WeatherDisplay:10.37,2013-02-04 02:02:00,
2013-02-04 04:03:00,57.9,57.9,29.71,ESE,112,8.7,8.7,100,0.00,CLR,,0.00,WeatherDisplay:10.37,2013-02-04 02:03:00,
2013-02-04 04:05:00,57.9,57.9,29.71,SSE,158,6.7,6.7,100,0.00,CLR,,0.00,WeatherDisplay:10.37,2013-02-04 02:05:00,
2013-02-04 04:07:00,57.9,57.9,29.71,SSE,158,9.2,9.2,100,0.00,CLR,,0.00,WeatherDisplay:10.37,2013-02-04 02:07:00,
2013-02-04 04:08:00,57.9,57.9,29.71,SSE,158,8.1,8.1,100,0.00,CLR,,0.00,WeatherDisplay:10.37,2013-02-04 02:08:00,
2013-02-04 04:10:00,57.9,57.9,29.71,SSE,158,9.2,9.2,100,0.00,CLR,,0.00,WeatherDisplay:10.37,2013-02-04 02:10:00,
2013-02-04 04:12:00,57.9,57.9,29.71,SSE,158,8.5,8.7,100,0.00,CLR,,0.00,WeatherDisplay:10.37,2013-02-04 02:12:00,
2013-02-04 04:13:00,57.9,57.9,29.71,SE,135,10.4,10.4,100,0.00,CLR,,0.00,WeatherDisplay:10.37,2013-02-04 02:13:00,
2013-02-04 04:15:00,57.9,57.9,29.71,South,180,9.2,9.2,100,0.00,CLR,,0.00,WeatherDisplay:10.37,2013-02-04 02:15:00,
2013-02-04 04:17:00,58.1,58.1,29.71,ESE,112,11.5,11.5,100,0.00,CLR,,0.00,WeatherDisplay:10.37,2013-02-04 02:17:00,
2013-02-04 04:18:00,58.1,58.1,29.71,SSE,158,11.5,11.5,100,0.00,CLR,,0.00,WeatherDisplay:10.37,2013-02-04 02:18:00,
2013-02-04 04:19:00,58.1,58.1,29.71,ESE,112,11.5,11.5,100,0.00,CLR,,0.00,WeatherDisplay:10.37,2013-02-04 02:19:00,
2013-02-04 04:20:00,58.1,58.1,29.71,SSE,158,9.2,9.2,100,0.00,CLR,,0.00,WeatherDisplay:10.37,2013-02-04 02:20:00,
2013-02-04 04:22:00,57.9,57.9,29.71,SSE,158,5.8,5.8,100,0.00,CLR,,0.00,WeatherDisplay:10.37,2013-02-04 02:22:00,
2013-02-04 04:23:00,57.9,57.9,29.71,SE,135,6.0,6.0,100,0.00,CLR,,0.00,WeatherDisplay:10.37,2013-02-04 02:23:00,
2013-02-04 04:24:00,57.9,57.9,29.71,SSE,158,10.7,10.7,100,0.00,CLR,,0.00,WeatherDisplay:10.37,2013-02-04 02:24:00,
2013-02-04 04:25:00,58.1,58.1,29.71,SE,135,10.4,10.4,100,0.00,CLR,,0.00,WeatherDisplay:10.37,2013-02-04 02:25:00,
2013-02-04 04:27:00,58.1,58.1,29.71,SSE,158,12.7,12.7,100,0.00,CLR,,0.00,WeatherDisplay:10.37,2013-02-04 02:27:00,
2013-02-04 04:28:00,58.1,58.1,29.71,SSE,158,12.7,12.7,100,0.00,CLR,,0.00,WeatherDisplay:10.37,2013-02-04 02:28:00,
2013-02-04 04:29:00,58.1,58.1,29.71,SSE,158,7.4,8.5,100,0.00,CLR,,0.00,WeatherDisplay:10.37,2013-02-04 02:29:00,
2013-02-04 04:31:00,58.1,58.1,29.71,SSE,158,7.4,8.5,100,0.00,CLR,,0.00,WeatherDisplay:10.37,2013-02-04 02:31:00,
2013-02-04 04:33:00,58.1,58.1,29.71,SSE,158,7.4,8.5,100,0.00,CLR,,0.00,WeatherDisplay:10.37,2013-02-04 02:33:00,
2013-02-04 04:34:00,58.1,58.1,29.71,SSE,158,7.4,8.5,100,0.00,CLR,,0.00,WeatherDisplay:10.37,2013-02-04 02:34:00,
2013-02-04 04:36:00,58.1,58.1,29.71,SSE,158,7.4,8.5,100,0.00,CLR,,0.00,WeatherDisplay:10.37,2013-02-04 02:36:00,
2013-02-04 04:38:00,58.1,58.1,29.71,SSE,158,7.4,8.5,100,0.00,CLR,,0.00,WeatherDisplay:10.37,2013-02-04 02:38:00,
2013-02-04 04:39:00,58.1,57.8,29.71,SSE,158,7.4,8.5,99,0.00,CLR,,0.00,WeatherDisplay:10.37,2013-02-04 02:39:00,
2013-02-04 04:41:00,58.1,57.8,29.71,SSE,158,7.4,8.5,99,0.00,CLR,,0.00,WeatherDisplay:10.37,2013-02-04 02:41:00,
2013-02-04 04:43:00,58.1,57.5,29.71,SSE,158,7.4,8.5,98,0.00,CLR,,0.00,WeatherDisplay:10.37,2013-02-04 02:43:00,
2013-02-04 04:44:00,58.1,57.5,29.71,SSE,158,7.4,8.5,98,0.00,CLR,,0.00,WeatherDisplay:10.37,2013-02-04 02:44:00,
2013-02-04 04:46:00,58.1,57.5,29.71,SE,135,7.4,7.4,98,0.00,CLR,,0.00,WeatherDisplay:10.37,2013-02-04 02:46:00,
2013-02-04 04:48:00,58.1,57.5,29.71,NNW,338,5.8,5.8,98,0.00,CLR,,0.00,WeatherDisplay:10.37,2013-02-04 02:48:00,
2013-02-04 04:49:00,58.1,57.5,29.71,ESE,112,7.4,7.4,98,0.00,CLR,,0.00,WeatherDisplay:10.37,2013-02-04 02:49:00,
2013-02-04 04:51:00,58.1,57.3,29.71,SSW,202,6.9,6.9,97,0.00,CLR,,0.00,WeatherDisplay:10.37,2013-02-04 02:51:00,
2013-02-04 04:53:00,58.1,57.3,29.71,SSE,158,5.8,5.8,97,0.00,CLR,,0.00,WeatherDisplay:10.37,2013-02-04 02:53:00,
2013-02-04 04:54:00,58.1,57.3,29.71,SE,135,9.8,9.8,97,0.00,CLR,,0.00,WeatherDisplay:10.37,2013-02-04 02:54:00,
2013-02-04 04:55:00,58.1,57.3,29.71,SE,135,9.8,9.8,97,0.00,CLR,,0.00,WeatherDisplay:10.37,2013-02-04 02:55:00,
2013-02-04 04:56:00,58.3,57.1,29.71,SSE,158,6.9,6.9,96,0.00,CLR,,0.00,WeatherDisplay:10.37,2013-02-04 02:56:00,
2013-02-04 04:58:00,58.3,57.1,29.71,SSE,158,8.1,8.1,96,0.00,CLR,,0.00,WeatherDisplay:10.37,2013-02-04 02:58:00,
2013-02-04 05:00:00,58.3,56.9,29.71,SE,142,8.0,13.0,95,0.00,CLR,,0.00,WeatherDisplay:10.37,2013-02-04 03:00:00,
2013-02-04 05:01:00,58.3,56.9,29.71,SSE,158,11.5,11.5,95,0.00,CLR,,0.00,WeatherDisplay:10.37,2013-02-04 03:01:00,
2013-02-04 05:03:00,58.5,57.0,29.71,ESE,112,9.2,9.2,95,0.00,CLR,,0.00,WeatherDisplay:10.37,2013-02-04 03:03:00,
2013-02-04 05:05:00,58.5,56.7,29.71,SE,142,7.0,13.0,94,0.00,CLR,,0.00,WeatherDisplay:10.37,2013-02-04 03:05:00,
2013-02-04 05:06:00,58.5,56.7,29.71,SE,135,6.2,6.2,94,0.00,CLR,,0.00,WeatherDisplay:10.37,2013-02-04 03:06:00,
2013-02-04 05:08:00,58.5,56.7,29.71,SSE,158,5.8,5.8,94,0.00,CLR,,0.00,WeatherDisplay:10.37,2013-02-04 03:08:00,
2013-02-04 05:10:00,58.5,56.4,29.71,SSE,158,6.9,6.9,93,0.00,CLR,,0.00,WeatherDisplay:10.37,2013-02-04 03:10:00,
2013-02-04 05:11:00,58.5,56.4,29.71,SE,135,9.2,9.2,93,0.00,CLR,,0.00,WeatherDisplay:10.37,2013-02-04 03:11:00,
2013-02-04 05:14:00,58.5,56.4,29.71,ESE,112,8.1,8.1,93,0.00,CLR,,0.00,WeatherDisplay:10.37,2013-02-04 03:14:00,
2013-02-04 05:15:00,58.5,56.4,29.71,SE,135,8.1,8.1,93,0.00,CLR,,0.00,WeatherDisplay:10.37,2013-02-04 03:15:00,
2013-02-04 05:16:00,58.5,56.4,29.71,SSE,158,9.2,9.2,93,0.00,CLR,,0.00,WeatherDisplay:10.37,2013-02-04 03:16:00,
2013-02-04 05:19:00,58.6,56.3,29.71,SE,135,11.5,11.5,92,0.00,CLR,,0.00,WeatherDisplay:10.37,2013-02-04 03:19:00,
2013-02-04 05:20:00,58.6,56.3,29.71,SE,135,8.1,8.1,92,0.00,CLR,,0.00,WeatherDisplay:10.37,2013-02-04 03:20:00,
2013-02-04 05:21:00,58.6,56.3,29.71,SE,135,8.1,8.1,92,0.00,CLR,,0.00,WeatherDisplay:10.37,2013-02-04 03:21:00,
2013-02-04 05:24:00,58.6,56.3,29.71,SSE,158,9.2,9.2,92,0.00,CLR,,0.00,WeatherDisplay:10.37,2013-02-04 03:24:00,
2013-02-04 05:25:00,58.6,56.3,29.71,ESE,112,8.1,8.1,92,0.00,CLR,,0.00,WeatherDisplay:10.37,2013-02-04 03:25:00,
2013-02-04 05:27:00,58.6,56.3,29.71,SE,135,8.1,8.1,92,0.00,CLR,,0.00,WeatherDisplay:10.37,2013-02-04 03:27:00,
2013-02-04 05:29:00,58.5,56.4,29.71,SSE,158,8.1,8.1,93,0.00,CLR,,0.00,WeatherDisplay:10.37,2013-02-04 03:29:00,
2013-02-04 05:30:00,58.5,56.4,29.71,SSE,158,5.8,5.8,93,0.00,CLR,,0.00,WeatherDisplay:10.37,2013-02-04 03:30:00,
2013-02-04 05:32:00,58.5,56.7,29.71,SSE,158,8.1,8.1,94,0.00,CLR,,0.00,WeatherDisplay:10.37,2013-02-04 03:32:00,
2013-02-04 05:34:00,58.5,56.7,29.71,SSE,158,5.8,5.8,94,0.00,CLR,,0.00,WeatherDisplay:10.37,2013-02-04 03:34:00,
2013-02-04 05:35:00,58.5,56.7,29.71,SE,135,6.9,6.9,94,0.00,CLR,,0.00,WeatherDisplay:10.37,2013-02-04 03:35:00,
2013-02-04 05:36:00,58.5,56.7,29.71,SE,135,6.9,6.9,94,0.00,CLR,,0.00,WeatherDisplay:10.37,2013-02-04 03:36:00,
2013-02-04 05:37:00,58.5,57.0,29.71,SE,135,8.1,8.1,95,0.00,CLR,,0.00,WeatherDisplay:10.37,2013-02-04 03:37:00,
2013-02-04 05:39:00,58.5,57.0,29.71,SSE,158,6.9,6.9,95,0.00,CLR,,0.00,WeatherDisplay:10.37,2013-02-04 03:39:00,
2013-02-04 05:40:00,58.3,56.9,29.71,SSE,158,6.7,6.7,95,0.00,CLR,,0.00,WeatherDisplay:10.37,2013-02-04 03:40:00,
2013-02-04 05:41:00,58.3,56.9,29.71,SSE,158,6.9,6.9,95,0.00,CLR,,0.00,WeatherDisplay:10.37,2013-02-04 03:41:00,
2013-02-04 05:42:00,58.3,56.9,29.71,SSE,158,6.9,6.9,95,0.00,CLR,,0.00,WeatherDisplay:10.37,2013-02-04 03:42:00,
2013-02-04 05:44:00,58.3,56.9,29.71,SSE,158,5.8,5.8,95,0.00,CLR,,0.00,WeatherDisplay:10.37,2013-02-04 03:44:00,
2013-02-04 05:46:00,58.3,56.9,29.71,SE,135,6.4,6.4,95,0.00,CLR,,0.00,WeatherDisplay:10.37,2013-02-04 03:46:00,
2013-02-04 05:47:00,58.3,56.9,29.71,SSE,158,6.9,6.9,95,0.00,CLR,,0.00,WeatherDisplay:10.37,2013-02-04 03:47:00,
2013-02-04 05:49:00,58.1,57.0,29.71,SSE,158,4.6,4.6,96,0.00,CLR,,0.00,WeatherDisplay:10.37,2013-02-04 03:49:00,
2013-02-04 05:51:00,58.1,57.0,29.71,SE,135,4.6,4.6,96,0.00,CLR,,0.00,WeatherDisplay:10.37,2013-02-04 03:51:00,
2013-02-04 05:52:00,58.1,57.0,29.71,SSE,158,5.4,5.4,96,0.00,CLR,,0.00,WeatherDisplay:10.37,2013-02-04 03:52:00,
2013-02-04 05:54:00,58.1,57.0,29.71,SSE,158,5.8,5.8,96,0.00,CLR,,0.00,WeatherDisplay:10.37,2013-02-04 03:54:00,
2013-02-04 05:56:00,58.1,57.0,29.71,SSE,158,9.4,9.4,96,0.00,CLR,,0.00,WeatherDisplay:10.37,2013-02-04 03:56:00,
2013-02-04 05:58:00,58.1,57.0,29.71,SE,135,5.8,5.8,96,0.00,CLR,,0.00,WeatherDisplay:10.37,2013-02-04 03:58:00,
2013-02-04 05:59:00,58.1,57.3,29.71,SE,135,5.8,5.8,97,0.00,CLR,,0.00,WeatherDisplay:10.37,2013-02-04 03:59:00,
2013-02-04 06:01:00,58.1,57.3,29.71,ESE,112,8.1,8.1,97,0.00,CLR,,0.00,WeatherDisplay:10.37,2013-02-04 04:01:00,
2013-02-04 06:03:00,58.1,57.3,29.71,SSE,158,5.8,5.8,97,0.00,CLR,,0.00,WeatherDisplay:10.37,2013-02-04 04:03:00,
2013-02-04 06:04:00,58.1,57.3,29.71,SE,135,3.5,3.5,97,0.00,CLR,,0.00,WeatherDisplay:10.37,2013-02-04 04:04:00,
2013-02-04 06:06:00,58.1,57.3,29.71,SSE,158,8.1,8.1,97,0.00,CLR,,0.00,WeatherDisplay:10.37,2013-02-04 04:06:00,
2013-02-04 06:08:00,58.1,57.3,29.71,SSW,202,8.1,8.1,97,0.00,CLR,,0.00,WeatherDisplay:10.37,2013-02-04 04:08:00,
2013-02-04 06:09:00,58.1,57.3,29.71,SSE,158,4.6,4.6,97,0.00,CLR,,0.00,WeatherDisplay:10.37,2013-02-04 04:09:00,
2013-02-04 06:11:00,58.1,57.5,29.71,ESE,112,6.9,6.9,98,0.00,CLR,,0.00,WeatherDisplay:10.37,2013-02-04 04:11:00,
2013-02-04 06:13:00,58.3,57.7,29.71,SE,135,5.8,5.8,98,0.00,CLR,,0.00,WeatherDisplay:10.37,2013-02-04 04:13:00,
2013-02-04 06:14:00,58.3,57.7,29.71,SE,135,4.6,4.6,98,0.00,CLR,,0.00,WeatherDisplay:10.37,2013-02-04 04:14:00,
2013-02-04 06:16:00,58.1,57.5,29.71,SSE,158,2.3,2.3,98,0.00,CLR,,0.00,WeatherDisplay:10.37,2013-02-04 04:16:00,
2013-02-04 06:18:00,58.1,57.3,29.71,SSE,158,2.6,2.6,97,0.00,CLR,,0.00,WeatherDisplay:10.37,2013-02-04 04:18:00,
2013-02-04 06:20:00,57.9,57.1,29.71,ESE,112,3.5,3.5,97,0.00,CLR,,0.00,WeatherDisplay:10.37,2013-02-04 04:20:00,
2013-02-04 06:21:00,57.9,57.1,29.71,SE,135,4.9,4.9,97,0.00,CLR,,0.00,WeatherDisplay:10.37,2013-02-04 04:21:00,
2013-02-04 06:22:00,57.9,57.1,29.71,SSE,158,4.6,4.6,97,0.00,CLR,,0.00,WeatherDisplay:10.37,2013-02-04 04:22:00,
2013-02-04 06:23:00,57.9,57.4,29.71,SE,135,5.8,5.8,98,0.00,CLR,,0.00,WeatherDisplay:10.37,2013-02-04 04:23:00,
2013-02-04 06:25:00,57.9,57.4,29.71,SSE,158,2.3,2.3,98,0.00,CLR,,0.00,WeatherDisplay:10.37,2013-02-04 04:25:00,
2013-02-04 06:26:00,57.9,57.4,29.71,SSE,158,3.5,3.5,98,0.00,CLR,,0.00,WeatherDisplay:10.37,2013-02-04 04:26:00,
2013-02-04 06:27:00,57.9,57.4,29.71,SSE,158,3.5,3.5,98,0.00,CLR,,0.00,WeatherDisplay:10.37,2013-02-04 04:27:00,
2013-02-04 06:29:00,57.9,57.4,29.71,SSE,158,4.6,4.6,98,0.00,CLR,,0.00,WeatherDisplay:10.37,2013-02-04 04:29:00,
2013-02-04 06:30:00,57.9,57.4,29.71,SE,135,5.8,5.8,98,0.00,CLR,,0.00,WeatherDisplay:10.37,2013-02-04 04:30:00,
2013-02-04 06:31:00,57.7,57.2,29.71,ESE,112,2.6,2.6,98,0.00,CLR,,0.00,WeatherDisplay:10.37,2013-02-04 04:31:00,
2013-02-04 06:32:00,57.7,57.2,29.71,SSE,158,5.4,5.4,98,0.00,CLR,,0.00,WeatherDisplay:10.37,2013-02-04 04:32:00,
2013-02-04 06:34:00,57.9,57.4,29.71,ESE,112,6.9,6.9,98,0.00,CLR,,0.00,WeatherDisplay:10.37,2013-02-04 04:34:00,
2013-02-04 06:35:00,57.7,57.2,29.71,SSE,158,5.8,5.8,98,0.00,CLR,,0.00,WeatherDisplay:10.37,2013-02-04 04:35:00,
2013-02-04 06:36:00,57.7,57.2,29.71,SSE,158,5.8,5.8,98,0.00,CLR,,0.00,WeatherDisplay:10.37,2013-02-04 04:36:00,
2013-02-04 06:38:00,57.9,57.4,29.71,SSE,158,5.8,5.8,98,0.00,CLR,,0.00,WeatherDisplay:10.37,2013-02-04 04:38:00,
2013-02-04 06:39:00,57.9,57.4,29.71,ESE,112,5.8,5.8,98,0.00,CLR,,0.00,WeatherDisplay:10.37,2013-02-04 04:39:00,
2013-02-04 06:40:00,57.9,57.4,29.71,SE,135,5.8,5.8,98,0.00,CLR,,0.00,WeatherDisplay:10.37,2013-02-04 04:40:00,
2013-02-04 06:41:00,57.9,57.4,29.71,SSE,158,3.5,3.5,98,0.00,CLR,,0.00,WeatherDisplay:10.37,2013-02-04 04:41:00,
2013-02-04 06:43:00,57.9,57.4,29.71,SE,135,4.6,4.6,98,0.00,CLR,,0.00,WeatherDisplay:10.37,2013-02-04 04:43:00,
2013-02-04 06:44:00,57.9,57.4,29.71,SSE,158,5.8,5.9,98,0.00,CLR,,0.00,WeatherDisplay:10.37,2013-02-04 04:44:00,
2013-02-04 06:45:00,57.9,57.4,29.71,SE,135,5.9,5.9,98,0.00,CLR,,0.00,WeatherDisplay:10.37,2013-02-04 04:45:00,
2013-02-04 06:46:00,57.9,57.4,29.71,SSE,158,5.8,5.8,98,0.00,CLR,,0.00,WeatherDisplay:10.37,2013-02-04 04:46:00,
2013-02-04 06:48:00,57.9,57.4,29.71,ESE,112,3.5,3.5,98,0.00,CLR,,0.00,WeatherDisplay:10.37,2013-02-04 04:48:00,
2013-02-04 06:49:00,57.9,57.4,29.71,SSE,158,4.6,4.6,98,0.00,CLR,,0.00,WeatherDisplay:10.37,2013-02-04 04:49:00,
2013-02-04 06:50:00,57.9,57.4,29.71,SSE,158,4.6,4.6,98,0.00,CLR,,0.00,WeatherDisplay:10.37,2013-02-04 04:50:00,
2013-02-04 06:51:00,57.9,57.4,29.71,SSE,158,4.6,4.6,98,0.00,CLR,,0.00,WeatherDisplay:10.37,2013-02-04 04:51:00,
2013-02-04 06:54:00,57.9,57.4,29.71,ESE,112,5.8,5.8,98,0.00,CLR,,0.00,WeatherDisplay:10.37,2013-02-04 04:54:00,
2013-02-04 06:55:00,57.9,57.4,29.71,SSE,158,3.8,3.8,98,0.00,CLR,,0.00,WeatherDisplay:10.37,2013-02-04 04:55:00,
2013-02-04 06:56:00,57.9,57.4,29.71,SSE,158,4.0,4.0,98,0.00,CLR,,0.00,WeatherDisplay:10.37,2013-02-04 04:56:00,
2013-02-04 06:59:00,57.9,57.4,29.71,SSE,158,3.5,3.5,98,0.00,CLR,,0.00,WeatherDisplay:10.37,2013-02-04 04:59:00,
2013-02-04 07:00:00,57.9,57.4,29.71,SE,136,2.0,5.0,98,0.00,CLR,,0.00,WeatherDisplay:10.37,2013-02-04 05:00:00,
2013-02-04 07:01:00,57.9,57.4,29.74,SE,135,5.8,5.8,98,0.00,CLR,,0.00,WeatherDisplay:10.37,2013-02-04 05:01:00,
2013-02-04 07:02:00,57.9,57.4,29.74,ESE,112,4.6,4.6,98,0.00,CLR,,0.00,WeatherDisplay:10.37,2013-02-04 05:02:00,
2013-02-04 07:05:00,57.9,57.4,29.74,SSE,158,4.7,4.7,98,0.00,CLR,,0.00,WeatherDisplay:10.37,2013-02-04 05:05:00,
2013-02-04 07:06:00,57.9,57.4,29.74,SSE,158,4.6,4.6,98,0.00,CLR,,0.00,WeatherDisplay:10.37,2013-02-04 05:06:00,
2013-02-04 07:07:00,57.9,57.4,29.74,SSE,158,5.8,5.8,98,0.00,CLR,,0.00,WeatherDisplay:10.37,2013-02-04 05:07:00,
2013-02-04 07:10:00,57.9,57.4,29.74,SE,135,5.8,5.8,98,0.00,CLR,,0.00,WeatherDisplay:10.37,2013-02-04 05:10:00,
2013-02-04 07:11:00,57.9,57.4,29.74,SE,135,5.8,5.8,98,0.00,CLR,,0.00,WeatherDisplay:10.37,2013-02-04 05:11:00,
2013-02-04 07:12:00,57.9,57.6,29.74,SE,135,6.9,6.9,99,0.00,CLR,,0.00,WeatherDisplay:10.37,2013-02-04 05:12:00,
2013-02-04 07:15:00,57.9,57.4,29.74,ESE,112,4.6,4.6,98,0.00,CLR,,0.00,WeatherDisplay:10.37,2013-02-04 05:15:00,
2013-02-04 07:16:00,57.9,57.4,29.74,SSE,158,5.6,5.6,98,0.00,CLR,,0.00,WeatherDisplay:10.37,2013-02-04 05:16:00,
2013-02-04 07:18:00,57.9,57.4,29.74,SE,135,5.8,5.8,98,0.00,CLR,,0.00,WeatherDisplay:10.37,2013-02-04 05:18:00,
2013-02-04 07:20:00,57.9,57.4,29.74,ESE,112,4.6,4.6,98,0.00,CLR,,0.00,WeatherDisplay:10.37,2013-02-04 05:20:00,
2013-02-04 07:21:00,57.9,57.4,29.74,ESE,112,4.6,4.6,98,0.00,CLR,,0.00,WeatherDisplay:10.37,2013-02-04 05:21:00,
2013-02-04 07:23:00,57.9,57.4,29.74,SSE,158,4.6,4.6,98,0.00,CLR,,0.00,WeatherDisplay:10.37,2013-02-04 05:23:00,
2013-02-04 07:25:00,57.9,57.4,29.74,SE,135,4.6,4.6,98,0.00,CLR,,0.00,WeatherDisplay:10.37,2013-02-04 05:25:00,
2013-02-04 07:26:00,57.9,57.4,29.74,SSE,158,4.6,4.6,98,0.00,CLR,,0.00,WeatherDisplay:10.37,2013-02-04 05:26:00,
2013-02-04 07:28:00,57.9,57.4,29.74,SSE,158,5.8,5.8,98,0.00,CLR,,0.00,WeatherDisplay:10.37,2013-02-04 05:28:00,
2013-02-04 07:30:00,57.9,57.4,29.74,SE,135,3.5,3.5,98,0.00,CLR,,0.00,WeatherDisplay:10.37,2013-02-04 05:30:00,
2013-02-04 07:31:00,57.9,57.4,29.74,SE,135,3.5,3.5,98,0.00,CLR,,0.00,WeatherDisplay:10.37,2013-02-04 05:31:00,
2013-02-04 07:33:00,57.9,57.4,29.74,ESE,112,2.9,2.9,98,0.00,CLR,,0.00,WeatherDisplay:10.37,2013-02-04 05:33:00,
2013-02-04 07:36:00,57.9,57.4,29.74,SSE,158,6.9,6.9,98,0.00,CLR,,0.00,WeatherDisplay:10.37,2013-02-04 05:36:00,
2013-02-04 07:38:00,57.9,57.4,29.74,SSE,158,4.9,4.9,98,0.00,CLR,,0.00,WeatherDisplay:10.37,2013-02-04 05:38:00,
2013-02-04 07:41:00,57.9,57.1,29.74,SE,135,3.5,3.5,97,0.00,CLR,,0.00,WeatherDisplay:10.37,2013-02-04 05:41:00,
2013-02-04 07:43:00,57.7,56.9,29.74,SSE,158,4.9,4.9,97,0.00,CLR,,0.00,WeatherDisplay:10.37,2013-02-04 05:43:00,
2013-02-04 07:46:00,57.9,57.4,29.74,SSE,158,5.4,5.4,98,0.00,CLR,,0.00,WeatherDisplay:10.37,2013-02-04 05:46:00,
2013-02-04 07:47:00,57.9,57.4,29.74,SE,135,3.5,3.5,98,0.00,CLR,,0.00,WeatherDisplay:10.37,2013-02-04 05:47:00,
2013-02-04 07:48:00,57.9,57.4,29.74,SE,135,2.3,2.3,98,0.00,CLR,,0.00,WeatherDisplay:10.37,2013-02-04 05:48:00,
2013-02-04 07:51:00,57.7,56.9,29.74,SSE,158,2.3,2.3,97,0.00,CLR,,0.00,WeatherDisplay:10.37,2013-02-04 05:51:00,
2013-02-04 07:52:00,57.7,56.9,29.74,SSE,158,2.3,2.3,97,0.00,CLR,,0.00,WeatherDisplay:10.37,2013-02-04 05:52:00,
2013-02-04 07:53:00,57.7,56.9,29.74,SSE,158,2.3,2.3,97,0.00,CLR,,0.00,WeatherDisplay:10.37,2013-02-04 05:53:00,
2013-02-04 07:56:00,57.7,56.9,29.74,SE,135,0.0,0.0,97,0.00,CLR,,0.00,WeatherDisplay:10.37,2013-02-04 05:56:00,
2013-02-04 07:57:00,57.7,56.9,29.74,SE,135,1.4,0.0,97,0.00,CLR,,0.00,WeatherDisplay:10.37,2013-02-04 05:57:00,
2013-02-04 07:59:00,57.7,57.2,29.74,SE,135,3.5,3.5,98,0.00,CLR,,0.00,WeatherDisplay:10.37,2013-02-04 05:59:00,
2013-02-04 08:01:00,57.7,57.2,29.74,SE,135,2.3,2.3,98,0.00,CLR,,0.00,WeatherDisplay:10.37,2013-02-04 06:01:00,
2013-02-04 08:02:00,57.7,57.2,29.74,SE,135,2.3,2.3,98,0.00,CLR,,0.00,WeatherDisplay:10.37,2013-02-04 06:02:00,
2013-02-04 08:04:00,57.9,57.4,29.74,SE,135,2.3,2.3,98,0.00,CLR,,0.00,WeatherDisplay:10.37,2013-02-04 06:04:00,
2013-02-04 08:06:00,57.9,57.4,29.74,SE,135,0.0,0.0,98,0.00,CLR,,0.00,WeatherDisplay:10.37,2013-02-04 06:06:00,
2013-02-04 08:07:00,57.9,57.4,29.74,ESE,112,1.6,0.0,98,0.00,CLR,,0.00,WeatherDisplay:10.37,2013-02-04 06:07:00,
2013-02-04 08:09:00,57.9,57.4,29.74,SE,135,3.5,3.5,98,0.00,CLR,,0.00,WeatherDisplay:10.37,2013-02-04 06:09:00,
2013-02-04 08:11:00,58.1,57.5,29.74,SE,135,2.3,2.3,98,0.00,CLR,,0.00,WeatherDisplay:10.37,2013-02-04 06:11:00,
2013-02-04 08:12:00,58.1,57.5,29.74,SE,135,2.3,2.3,98,0.00,CLR,,0.00,WeatherDisplay:10.37,2013-02-04 06:12:00,
2013-02-04 08:14:00,58.1,57.5,29.74,ESE,112,2.3,2.3,98,0.00,CLR,,0.00,WeatherDisplay:10.37,2013-02-04 06:14:00,
2013-02-04 08:17:00,58.3,57.7,29.74,ESE,112,2.4,2.4,98,0.00,CLR,,0.00,WeatherDisplay:10.37,2013-02-04 06:17:00,
2013-02-04 08:19:00,58.3,57.7,29.74,ESE,112,2.3,2.3,98,0.00,CLR,,0.00,WeatherDisplay:10.37,2013-02-04 06:19:00,
2013-02-04 08:22:00,58.6,58.1,29.74,ESE,112,2.9,2.9,98,0.00,CLR,,0.00,WeatherDisplay:10.37,2013-02-04 06:22:00,
2013-02-04 08:24:00,58.8,58.3,29.74,ENE,68,2.3,2.3,98,0.00,CLR,,0.00,WeatherDisplay:10.37,2013-02-04 06:24:00,
2013-02-04 08:27:00,58.8,58.3,29.74,ENE,68,2.4,0.0,98,0.00,CLR,,0.00,WeatherDisplay:10.37,2013-02-04 06:27:00,
2013-02-04 08:30:00,59.0,58.4,29.74,ENE,68,2.3,2.3,98,0.00,CLR,,0.00,WeatherDisplay:10.37,2013-02-04 06:30:00,
2013-02-04 08:32:00,59.2,58.6,29.74,ENE,68,2.4,2.4,98,0.00,CLR,,0.00,WeatherDisplay:10.37,2013-02-04 06:32:00,
2013-02-04 08:35:00,59.4,58.8,29.74,East,90,2.6,2.6,98,0.00,CLR,,0.00,WeatherDisplay:10.37,2013-02-04 06:35:00,
2013-02-04 08:37:00,59.4,58.8,29.74,East,90,1.1,0.0,98,0.00,CLR,,0.00,WeatherDisplay:10.37,2013-02-04 06:37:00,
2013-02-04 08:38:00,59.4,58.8,29.74,East,90,0.0,0.0,98,0.00,CLR,,0.00,WeatherDisplay:10.37,2013-02-04 06:38:00,
2013-02-04 08:40:00,59.5,58.7,29.74,SE,135,3.5,3.5,97,0.00,CLR,,0.00,WeatherDisplay:10.37,2013-02-04 06:40:00,
2013-02-04 08:42:00,59.7,58.9,29.74,SSE,158,4.6,4.6,97,0.00,CLR,,0.00,WeatherDisplay:10.37,2013-02-04 06:42:00,
2013-02-04 08:43:00,59.7,58.9,29.74,SSE,158,2.3,2.3,97,0.00,CLR,,0.00,WeatherDisplay:10.37,2013-02-04 06:43:00,
2013-02-04 08:45:00,59.7,58.9,29.74,SSE,158,2.9,2.9,97,0.00,CLR,,0.00,WeatherDisplay:10.37,2013-02-04 06:45:00,
2013-02-04 08:47:00,59.9,59.0,29.71,SSE,158,2.3,2.3,97,0.00,CLR,,0.00,WeatherDisplay:10.37,2013-02-04 06:47:00,
2013-02-04 08:48:00,59.9,59.0,29.71,SSE,158,1.1,1.1,97,0.00,CLR,,0.00,WeatherDisplay:10.37,2013-02-04 06:48:00,
2013-02-04 08:50:00,59.9,58.8,29.71,SE,135,1.4,0.0,96,0.00,CLR,,0.00,WeatherDisplay:10.37,2013-02-04 06:50:00,
2013-02-04 08:53:00,59.9,58.8,29.71,East,90,2.4,2.4,96,0.00,CLR,,0.00,WeatherDisplay:10.37,2013-02-04 06:53:00,
2013-02-04 08:54:00,59.9,58.8,29.71,East,90,3.6,3.6,96,0.00,CLR,,0.00,WeatherDisplay:10.37,2013-02-04 06:54:00,
2013-02-04 08:55:00,59.9,58.5,29.71,East,90,3.5,3.5,95,0.00,CLR,,0.00,WeatherDisplay:10.37,2013-02-04 06:55:00,
2013-02-04 08:58:00,60.1,58.9,29.71,ESE,112,1.1,0.0,96,0.00,CLR,,0.00,WeatherDisplay:10.37,2013-02-04 06:58:00,
2013-02-04 08:59:00,60.1,58.9,29.71,ESE,112,2.3,2.3,96,0.00,CLR,,0.00,WeatherDisplay:10.37,2013-02-04 06:59:00,
2013-02-04 09:00:00,60.3,59.1,29.71,ESE,112,2.3,0.0,96,0.00,CLR,,0.00,WeatherDisplay:10.37,2013-02-04 07:00:00,
2013-02-04 09:03:00,60.3,59.1,29.74,ESE,112,2.3,2.3,96,0.00,CLR,,0.00,WeatherDisplay:10.37,2013-02-04 07:03:00,
2013-02-04 09:04:00,60.4,59.3,29.74,East,90,2.3,2.3,96,0.00,CLR,,0.00,WeatherDisplay:10.37,2013-02-04 07:04:00,
2013-02-04 09:06:00,60.6,59.5,29.74,SSE,158,2.9,0.0,96,0.00,CLR,,0.00,WeatherDisplay:10.37,2013-02-04 07:06:00,
2013-02-04 09:08:00,60.8,59.4,29.74,SE,135,2.3,2.3,95,0.00,CLR,,0.00,WeatherDisplay:10.37,2013-02-04 07:08:00,
2013-02-04 09:09:00,60.8,59.4,29.74,SSE,158,2.3,2.3,95,0.00,CLR,,0.00,WeatherDisplay:10.37,2013-02-04 07:09:00,
2013-02-04 09:11:00,61.2,59.7,29.74,SE,135,2.4,2.4,95,0.00,CLR,,0.00,WeatherDisplay:10.37,2013-02-04 07:11:00,
2013-02-04 09:13:00,61.2,59.7,29.74,SE,135,2.3,2.3,95,0.00,CLR,,0.00,WeatherDisplay:10.37,2013-02-04 07:13:00,
2013-02-04 09:14:00,61.2,59.7,29.74,SE,135,2.6,2.6,95,0.00,CLR,,0.00,WeatherDisplay:10.37,2013-02-04 07:14:00,
2013-02-04 09:16:00,61.5,60.1,29.74,SE,135,1.1,0.0,95,0.00,CLR,,0.00,WeatherDisplay:10.37,2013-02-04 07:16:00,
2013-02-04 09:18:00,61.9,60.4,29.74,SE,135,1.1,0.0,95,0.00,CLR,,0.00,WeatherDisplay:10.37,2013-02-04 07:18:00,
2013-02-04 09:19:00,62.1,60.3,29.74,SSE,158,4.6,4.6,94,0.00,CLR,,0.00,WeatherDisplay:10.37,2013-02-04 07:19:00,
2013-02-04 09:21:00,62.2,60.5,29.74,SSE,158,2.4,2.4,94,0.00,CLR,,0.00,WeatherDisplay:10.37,2013-02-04 07:21:00,
2013-02-04 09:23:00,62.4,60.4,29.74,SE,135,4.6,4.6,93,0.00,CLR,,0.00,WeatherDisplay:10.37,2013-02-04 07:23:00,
2013-02-04 09:24:00,62.6,60.2,29.74,ESE,112,5.8,5.8,92,0.00,CLR,,0.00,WeatherDisplay:10.37,2013-02-04 07:24:00,
2013-02-04 09:26:00,62.8,60.1,29.74,SE,135,4.3,4.3,91,0.00,CLR,,0.00,WeatherDisplay:10.37,2013-02-04 07:26:00,
2013-02-04 09:28:00,62.8,59.2,29.74,SSE,158,5.8,5.8,88,0.00,CLR,,0.00,WeatherDisplay:10.37,2013-02-04 07:28:00,
2013-02-04 09:29:00,62.8,59.2,29.74,South,180,4.6,4.6,88,0.00,CLR,,0.00,WeatherDisplay:10.37,2013-02-04 07:29:00,
2013-02-04 09:31:00,63.1,59.5,29.74,SSE,158,4.9,4.9,88,0.00,CLR,,0.00,WeatherDisplay:10.37,2013-02-04 07:31:00,
2013-02-04 09:33:00,63.1,59.2,29.74,SE,135,4.7,4.7,87,0.00,CLR,,0.00,WeatherDisplay:10.37,2013-02-04 07:33:00,
2013-02-04 09:34:00,63.1,59.2,29.74,SSE,158,4.6,4.6,87,0.00,CLR,,0.00,WeatherDisplay:10.37,2013-02-04 07:34:00,
2013-02-04 09:36:00,63.3,58.7,29.74,SSE,158,5.8,5.8,85,0.00,CLR,,0.00,WeatherDisplay:10.37,2013-02-04 07:36:00,
2013-02-04 09:39:00,63.3,58.1,29.74,SSE,158,6.9,6.9,83,0.00,CLR,,0.00,WeatherDisplay:10.37,2013-02-04 07:39:00,
2013-02-04 09:41:00,63.5,58.6,29.74,ESE,112,5.8,5.8,84,0.00,CLR,,0.00,WeatherDisplay:10.37,2013-02-04 07:41:00,
2013-02-04 09:44:00,63.7,58.8,29.74,SSE,158,4.0,4.0,84,0.00,CLR,,0.00,WeatherDisplay:10.37,2013-02-04 07:44:00,
2013-02-04 09:45:00,63.9,58.9,29.74,ESE,112,4.6,4.6,84,0.00,CLR,,0.00,WeatherDisplay:10.37,2013-02-04 07:45:00,
2013-02-04 09:46:00,63.9,58.9,29.74,SSE,158,3.5,3.5,84,0.00,CLR,,0.00,WeatherDisplay:10.37,2013-02-04 07:46:00,
2013-02-04 09:50:00,63.9,57.9,29.74,SSE,158,8.1,8.1,81,0.00,CLR,,0.00,WeatherDisplay:10.37,2013-02-04 07:50:00,
2013-02-04 09:52:00,63.9,58.3,29.74,SSE,158,6.0,6.0,82,0.00,CLR,,0.00,WeatherDisplay:10.37,2013-02-04 07:52:00,
2013-02-04 09:55:00,64.2,58.6,29.74,SE,135,5.8,5.8,82,0.00,CLR,,0.00,WeatherDisplay:10.37,2013-02-04 07:55:00,
2013-02-04 09:57:00,64.2,58.6,29.74,SE,135,5.8,5.8,82,0.00,CLR,,0.00,WeatherDisplay:10.37,2013-02-04 07:57:00,
2013-02-04 10:00:00,64.4,58.1,29.74,SSE,158,6.9,6.9,80,0.00,CLR,,0.00,WeatherDisplay:10.37,2013-02-04 08:00:00,
2013-02-04 10:02:00,64.6,58.6,29.74,SSE,158,3.5,3.5,81,0.00,CLR,,0.00,WeatherDisplay:10.37,2013-02-04 08:02:00,
2013-02-04 10:05:00,64.8,58.8,29.74,SSW,202,3.6,3.6,81,0.00,CLR,,0.00,WeatherDisplay:10.37,2013-02-04 08:05:00,
2013-02-04 10:06:00,64.8,58.1,29.74,SSE,158,4.9,4.9,79,0.00,CLR,,0.00,WeatherDisplay:10.37,2013-02-04 08:06:00,
2013-02-04 10:07:00,64.6,57.2,29.74,SSE,158,6.9,6.9,77,0.00,CLR,,0.00,WeatherDisplay:10.37,2013-02-04 08:07:00,
2013-02-04 10:10:00,65.3,59.3,29.74,South,180,2.3,2.3,81,0.00,CLR,,0.00,WeatherDisplay:10.37,2013-02-04 08:10:00,
2013-02-04 10:11:00,65.3,59.3,29.74,SSE,158,2.4,2.4,81,0.00,CLR,,0.00,WeatherDisplay:10.37,2013-02-04 08:11:00,
2013-02-04 10:12:00,65.7,59.3,29.74,SSW,202,2.4,2.4,80,0.00,CLR,,0.00,WeatherDisplay:10.37,2013-02-04 08:12:00,
2013-02-04 10:15:00,65.7,58.6,29.74,SSE,158,5.4,5.4,78,0.00,CLR,,0.00,WeatherDisplay:10.37,2013-02-04 08:15:00,
2013-02-04 10:16:00,65.7,57.1,29.74,SSE,158,5.8,5.8,74,0.00,CLR,,0.00,WeatherDisplay:10.37,2013-02-04 08:16:00,
2013-02-04 10:17:00,65.8,57.7,29.74,SSE,158,5.8,5.8,75,0.00,CLR,,0.00,WeatherDisplay:10.37,2013-02-04 08:17:00,
2013-02-04 10:20:00,66.2,58.4,29.74,SSE,158,2.3,2.3,76,0.00,CLR,,0.00,WeatherDisplay:10.37,2013-02-04 08:20:00,
2013-02-04 10:21:00,66.2,58.4,29.74,SSE,158,2.3,2.3,76,0.00,CLR,,0.00,WeatherDisplay:10.37,2013-02-04 08:21:00,
2013-02-04 10:22:00,66.6,58.8,29.74,SSE,158,2.3,2.9,76,0.00,CLR,,0.00,WeatherDisplay:10.37,2013-02-04 08:22:00,
2013-02-04 10:25:00,67.5,59.6,29.74,SSE,158,2.3,0.0,76,0.00,CLR,,0.00,WeatherDisplay:10.37,2013-02-04 08:25:00,
2013-02-04 10:26:00,67.5,59.6,29.74,SSE,158,3.6,0.0,76,0.00,CLR,,0.00,WeatherDisplay:10.37,2013-02-04 08:26:00,
2013-02-04 10:28:00,67.3,58.7,29.74,SE,135,3.6,3.6,74,0.00,CLR,,0.00,WeatherDisplay:10.37,2013-02-04 08:28:00,
2013-02-04 10:30:00,67.6,58.3,29.74,SE,135,2.3,2.3,72,0.00,CLR,,0.00,WeatherDisplay:10.37,2013-02-04 08:30:00,
2013-02-04 10:31:00,67.6,58.3,29.71,SE,135,1.1,1.1,72,0.00,CLR,,0.00,WeatherDisplay:10.37,2013-02-04 08:31:00,
2013-02-04 10:32:00,67.8,58.5,29.71,SSE,158,1.1,0.0,72,0.00,CLR,,0.00,WeatherDisplay:10.37,2013-02-04 08:32:00,
2013-02-04 10:33:00,67.8,58.1,29.71,SSE,158,3.5,0.0,71,0.00,CLR,,0.00,WeatherDisplay:10.37,2013-02-04 08:33:00,
2013-02-04 10:35:00,67.6,55.9,29.71,SSE,158,3.5,3.5,66,0.00,CLR,,0.00,WeatherDisplay:10.37,2013-02-04 08:35:00,
2013-02-04 10:36:00,67.6,55.9,29.71,South,180,3.5,3.5,66,0.00,CLR,,0.00,WeatherDisplay:10.37,2013-02-04 08:36:00,
2013-02-04 10:37:00,67.3,53.4,29.71,SSE,158,2.3,2.6,61,0.00,CLR,,0.00,WeatherDisplay:10.37,2013-02-04 08:37:00,
2013-02-04 10:38:00,67.6,55.0,29.71,SSE,158,2.3,2.3,64,0.00,CLR,,0.00,WeatherDisplay:10.37,2013-02-04 08:38:00,
2013-02-04 10:41:00,67.6,52.8,29.71,South,180,5.8,5.8,59,0.00,CLR,,0.00,WeatherDisplay:10.37,2013-02-04 08:41:00,
2013-02-04 10:42:00,67.6,52.8,29.71,South,180,3.5,3.5,59,0.00,CLR,,0.00,WeatherDisplay:10.37,2013-02-04 08:42:00,
2013-02-04 10:43:00,67.6,52.8,29.71,South,180,2.3,2.3,59,0.00,CLR,,0.00,WeatherDisplay:10.37,2013-02-04 08:43:00,
2013-02-04 10:46:00,67.6,52.3,29.74,SSE,158,3.5,3.5,58,0.00,CLR,,0.00,WeatherDisplay:10.37,2013-02-04 08:46:00,
2013-02-04 10:47:00,67.5,52.2,29.74,SSE,158,2.3,2.4,58,0.00,CLR,,0.00,WeatherDisplay:10.37,2013-02-04 08:47:00,
2013-02-04 10:48:00,67.5,52.2,29.74,SSE,158,1.6,1.6,58,0.00,CLR,,0.00,WeatherDisplay:10.37,2013-02-04 08:48:00,
2013-02-04 10:51:00,68.0,51.7,29.74,SSE,158,3.5,3.5,56,0.00,CLR,,0.00,WeatherDisplay:10.37,2013-02-04 08:51:00,
2013-02-04 10:52:00,68.2,52.4,29.74,SSE,158,2.3,0.0,57,0.00,CLR,,0.00,WeatherDisplay:10.37,2013-02-04 08:52:00,
2013-02-04 10:53:00,68.2,52.4,29.74,SSE,158,0.0,0.0,57,0.00,CLR,,0.00,WeatherDisplay:10.37,2013-02-04 08:53:00,
2013-02-04 10:56:00,67.6,50.4,29.74,ESE,112,5.8,5.8,54,0.00,CLR,,0.00,WeatherDisplay:10.37,2013-02-04 08:56:00,
2013-02-04 10:57:00,67.6,49.4,29.74,SE,135,4.6,4.6,52,0.00,CLR,,0.00,WeatherDisplay:10.37,2013-02-04 08:57:00,
2013-02-04 10:58:00,67.6,50.4,29.74,ESE,112,4.6,4.6,54,0.00,CLR,,0.00,WeatherDisplay:10.37,2013-02-04 08:58:00,
2013-02-04 11:01:00,67.8,50.6,29.74,SSE,158,2.3,2.3,54,0.00,CLR,,0.00,WeatherDisplay:10.37,2013-02-04 09:01:00,
2013-02-04 11:02:00,67.8,49.5,29.74,SE,135,5.8,5.8,52,0.00,CLR,,0.00,WeatherDisplay:10.37,2013-02-04 09:02:00,
2013-02-04 11:03:00,67.8,49.5,29.74,SE,135,5.8,5.8,52,0.00,CLR,,0.00,WeatherDisplay:10.37,2013-02-04 09:03:00,
2013-02-04 11:06:00,67.8,49.5,29.74,South,180,2.3,2.3,52,0.00,CLR,,0.00,WeatherDisplay:10.37,2013-02-04 09:06:00,
2013-02-04 11:07:00,68.0,50.2,29.74,South,180,2.3,2.3,53,0.00,CLR,,0.00,WeatherDisplay:10.37,2013-02-04 09:07:00,
2013-02-04 11:08:00,68.2,50.4,29.74,SSE,158,3.6,3.6,53,0.00,CLR,,0.00,WeatherDisplay:10.37,2013-02-04 09:08:00,
2013-02-04 11:11:00,68.0,49.2,29.74,South,180,3.6,3.6,51,0.00,CLR,,0.00,WeatherDisplay:10.37,2013-02-04 09:11:00,
2013-02-04 11:12:00,68.0,49.2,29.74,SSE,158,3.5,3.5,51,0.00,CLR,,0.00,WeatherDisplay:10.37,2013-02-04 09:12:00,
2013-02-04 11:13:00,67.3,47.5,29.74,South,180,5.8,5.8,49,0.00,CLR,,0.00,WeatherDisplay:10.37,2013-02-04 09:13:00,
2013-02-04 11:16:00,67.3,48.0,29.74,SSE,158,5.8,5.8,50,0.00,CLR,,0.00,WeatherDisplay:10.37,2013-02-04 09:16:00,
2013-02-04 11:17:00,67.3,48.0,29.74,SSE,158,3.6,3.6,50,0.00,CLR,,0.00,WeatherDisplay:10.37,2013-02-04 09:17:00,
2013-02-04 11:18:00,67.5,49.2,29.74,SSE,158,3.5,3.5,52,0.00,CLR,,0.00,WeatherDisplay:10.37,2013-02-04 09:18:00,
2013-02-04 11:21:00,67.5,48.7,29.74,SSE,158,4.6,4.6,51,0.00,CLR,,0.00,WeatherDisplay:10.37,2013-02-04 09:21:00,
2013-02-04 11:22:00,67.5,48.7,29.74,SE,135,3.5,3.5,51,0.00,CLR,,0.00,WeatherDisplay:10.37,2013-02-04 09:22:00,
2013-02-04 11:23:00,67.5,47.6,29.74,SSW,202,3.5,3.5,49,0.00,CLR,,0.00,WeatherDisplay:10.37,2013-02-04 09:23:00,
2013-02-04 11:27:00,67.8,48.5,29.74,SW,225,2.6,2.6,50,0.00,CLR,,0.00,WeatherDisplay:10.37,2013-02-04 09:27:00,
2013-02-04 11:28:00,67.6,48.3,29.74,SSW,202,2.4,3.3,50,0.00,CLR,,0.00,WeatherDisplay:10.37,2013-02-04 09:28:00,
2013-02-04 11:32:00,68.0,49.2,29.71,SSE,158,2.3,2.3,51,0.00,CLR,,0.00,WeatherDisplay:10.37,2013-02-04 09:32:00,
2013-02-04 11:33:00,68.4,50.0,29.71,South,180,2.3,2.3,52,0.00,CLR,,0.00,WeatherDisplay:10.37,2013-02-04 09:33:00,
2013-02-04 11:34:00,68.7,50.9,29.71,South,180,2.3,2.3,53,0.00,CLR,,0.00,WeatherDisplay:10.37,2013-02-04 09:34:00,
2013-02-04 11:37:00,68.9,48.9,29.71,ESE,112,2.3,2.3,49,0.00,CLR,,0.00,WeatherDisplay:10.37,2013-02-04 09:37:00,
2013-02-04 11:38:00,69.3,48.7,29.71,SE,135,3.5,3.5,48,0.00,CLR,,0.00,WeatherDisplay:10.37,2013-02-04 09:38:00,
2013-02-04 11:39:00,69.1,48.0,29.71,SE,135,4.6,4.6,47,0.00,CLR,,0.00,WeatherDisplay:10.37,2013-02-04 09:39:00,
2013-02-04 11:42:00,68.0,45.9,29.71,SSE,158,5.8,5.8,45,0.00,CLR,,0.00,WeatherDisplay:10.37,2013-02-04 09:42:00,
2013-02-04 11:43:00,68.0,45.9,29.71,SSE,158,3.6,3.6,45,0.00,CLR,,0.00,WeatherDisplay:10.37,2013-02-04 09:43:00,
2013-02-04 11:44:00,68.2,46.0,29.71,South,180,5.8,5.8,45,0.00,CLR,,0.00,WeatherDisplay:10.37,2013-02-04 09:44:00,
2013-02-04 11:47:00,68.4,46.2,29.74,ESE,112,5.8,5.8,45,0.00,CLR,,0.00,WeatherDisplay:10.37,2013-02-04 09:47:00,
2013-02-04 11:48:00,68.7,47.1,29.74,SSE,158,5.6,5.6,46,0.00,CLR,,0.00,WeatherDisplay:10.37,2013-02-04 09:48:00,
2013-02-04 11:49:00,68.7,46.5,29.74,SSE,158,5.8,5.8,45,0.00,CLR,,0.00,WeatherDisplay:10.37,2013-02-04 09:49:00,
2013-02-04 11:53:00,69.1,47.4,29.74,SSE,158,4.6,4.6,46,0.00,CLR,,0.00,WeatherDisplay:10.37,2013-02-04 09:53:00,
2013-02-04 11:54:00,68.9,46.7,29.74,SSE,158,5.8,5.8,45,0.00,CLR,,0.00,WeatherDisplay:10.37,2013-02-04 09:54:00,
2013-02-04 11:58:00,68.9,46.7,29.74,SSE,158,5.8,5.8,45,0.00,CLR,,0.00,WeatherDisplay:10.37,2013-02-04 09:58:00,
2013-02-04 11:59:00,68.9,46.7,29.74,SSE,158,5.8,5.8,45,0.00,CLR,,0.00,WeatherDisplay:10.37,2013-02-04 09:59:00,
2013-02-04 12:03:00,68.9,47.3,29.74,SSE,158,4.6,4.6,46,0.00,CLR,,0.00,WeatherDisplay:10.37,2013-02-04 10:03:00,
2013-02-04 12:04:00,68.9,47.3,29.74,SSW,202,5.8,5.8,46,0.00,CLR,,0.00,WeatherDisplay:10.37,2013-02-04 10:04:00,
2013-02-04 12:08:00,70.0,47.1,29.74,South,180,4.6,4.6,44,0.00,CLR,,0.00,WeatherDisplay:10.37,2013-02-04 10:08:00,
2013-02-04 12:09:00,70.2,47.2,29.74,South,180,2.3,2.3,44,0.00,CLR,,0.00,WeatherDisplay:10.37,2013-02-04 10:09:00,
2013-02-04 12:13:00,70.2,47.2,29.74,SSE,158,2.4,2.4,44,0.00,CLR,,0.00,WeatherDisplay:10.37,2013-02-04 10:13:00,
2013-02-04 12:14:00,70.0,46.4,29.74,SSW,202,2.3,2.4,43,0.00,CLR,,0.00,WeatherDisplay:10.37,2013-02-04 10:14:00,
2013-02-04 12:18:00,69.6,46.1,29.74,SSE,158,2.9,2.9,43,0.00,CLR,,0.00,WeatherDisplay:10.37,2013-02-04 10:18:00,
2013-02-04 12:19:00,69.8,46.3,29.74,SE,135,3.5,3.5,43,0.00,CLR,,0.00,WeatherDisplay:10.37,2013-02-04 10:19:00,
2013-02-04 12:23:00,69.1,46.2,29.74,South,180,4.6,4.6,44,0.00,CLR,,0.00,WeatherDisplay:10.37,2013-02-04 10:23:00,
2013-02-04 12:24:00,68.7,45.9,29.74,South,180,4.6,4.6,44,0.00,CLR,,0.00,WeatherDisplay:10.37,2013-02-04 10:24:00,
2013-02-04 12:25:00,68.9,46.1,29.74,South,180,4.6,4.6,44,0.00,CLR,,0.00,WeatherDisplay:10.37,2013-02-04 10:25:00,
2013-02-04 12:29:00,69.4,47.2,29.74,SSW,202,3.5,0.0,45,0.00,CLR,,0.00,WeatherDisplay:10.37,2013-02-04 10:29:00,
2013-02-04 12:30:00,69.8,47.5,29.74,SSE,158,3.6,3.6,45,0.00,CLR,,0.00,WeatherDisplay:10.37,2013-02-04 10:30:00,
2013-02-04 12:34:00,69.3,46.4,29.74,SSW,202,4.6,4.6,44,0.00,CLR,,0.00,WeatherDisplay:10.37,2013-02-04 10:34:00,
2013-02-04 12:35:00,69.1,45.6,29.74,SSE,158,4.9,4.9,43,0.00,CLR,,0.00,WeatherDisplay:10.37,2013-02-04 10:35:00,
2013-02-04 12:39:00,68.9,45.5,29.74,SSW,202,3.5,3.5,43,0.00,CLR,,0.00,WeatherDisplay:10.37,2013-02-04 10:39:00,
2013-02-04 12:40:00,68.9,46.1,29.74,South,180,5.4,5.4,44,0.00,CLR,,0.00,WeatherDisplay:10.37,2013-02-04 10:40:00,
2013-02-04 12:44:00,68.5,45.8,29.74,SSW,202,3.5,3.5,44,0.00,CLR,,0.00,WeatherDisplay:10.37,2013-02-04 10:44:00,
2013-02-04 12:45:00,68.7,46.5,29.74,SE,135,3.5,3.5,45,0.00,CLR,,0.00,WeatherDisplay:10.37,2013-02-04 10:45:00,
2013-02-04 12:49:00,68.7,46.5,29.74,SSE,158,7.1,7.1,45,0.00,CLR,,0.00,WeatherDisplay:10.37,2013-02-04 10:49:00,
2013-02-04 12:50:00,68.7,46.5,29.74,SSE,158,6.9,6.9,45,0.00,CLR,,0.00,WeatherDisplay:10.37,2013-02-04 10:50:00,
2013-02-04 12:54:00,68.9,47.8,29.74,SSW,202,8.1,8.1,47,0.00,CLR,,0.00,WeatherDisplay:10.37,2013-02-04 10:54:00,
2013-02-04 12:55:00,68.9,47.3,29.74,SW,225,5.8,5.8,46,0.00,CLR,,0.00,WeatherDisplay:10.37,2013-02-04 10:55:00,
2013-02-04 12:59:00,69.3,47.6,29.74,SSW,202,5.8,5.8,46,0.00,CLR,,0.00,WeatherDisplay:10.37,2013-02-04 10:59:00,
2013-02-04 13:00:00,69.3,47.6,29.74,ESE,112,5.6,5.6,46,0.00,CLR,,0.00,WeatherDisplay:10.37,2013-02-04 11:00:00,
2013-02-04 13:04:00,69.3,46.4,29.74,ESE,112,6.9,6.9,44,0.00,CLR,,0.00,WeatherDisplay:10.37,2013-02-04 11:04:00,
2013-02-04 13:05:00,69.1,46.2,29.74,ENE,68,5.8,5.8,44,0.00,CLR,,0.00,WeatherDisplay:10.37,2013-02-04 11:05:00,
2013-02-04 13:09:00,69.3,46.4,29.74,ENE,68,3.5,3.5,44,0.00,CLR,,0.00,WeatherDisplay:10.37,2013-02-04 11:09:00,
2013-02-04 13:10:00,69.3,46.4,29.74,ESE,112,3.5,3.5,44,0.00,CLR,,0.00,WeatherDisplay:10.37,2013-02-04 11:10:00,
2013-02-04 13:11:00,69.3,45.8,29.74,SSE,158,10.4,10.4,43,0.00,CLR,,0.00,WeatherDisplay:10.37,2013-02-04 11:11:00,
2013-02-04 13:14:00,69.1,45.6,29.74,SSE,158,3.5,4.9,43,0.00,CLR,,0.00,WeatherDisplay:10.37,2013-02-04 11:14:00,
2013-02-04 13:15:00,69.1,46.2,29.74,ESE,122,3.0,10.0,44,0.00,CLR,,0.00,WeatherDisplay:10.37,2013-02-04 11:15:00,
2013-02-04 13:16:00,68.9,45.5,29.71,SE,135,5.8,5.8,43,0.00,CLR,,0.00,WeatherDisplay:10.37,2013-02-04 11:16:00,
2013-02-04 13:19:00,68.4,45.0,29.71,South,180,5.8,5.9,43,0.00,CLR,,0.00,WeatherDisplay:10.37,2013-02-04 11:19:00,
2013-02-04 13:20:00,68.4,45.0,29.71,South,180,5.8,5.9,43,0.00,CLR,,0.00,WeatherDisplay:10.37,2013-02-04 11:20:00,
2013-02-04 13:21:00,68.4,45.0,29.71,South,180,5.8,5.8,43,0.00,CLR,,0.00,WeatherDisplay:10.37,2013-02-04 11:21:00,
2013-02-04 13:25:00,68.5,45.8,29.71,SSE,158,9.2,9.2,44,0.00,CLR,,0.00,WeatherDisplay:10.37,2013-02-04 11:25:00,
2013-02-04 13:26:00,68.5,45.8,29.71,ESE,112,5.8,5.8,44,0.00,CLR,,0.00,WeatherDisplay:10.37,2013-02-04 11:26:00,
2013-02-04 13:30:00,68.5,45.1,29.71,SSE,158,4.6,4.6,43,0.00,CLR,,0.00,WeatherDisplay:10.37,2013-02-04 11:30:00,
2013-02-04 13:31:00,68.5,45.1,29.71,SSE,158,9.2,9.2,43,0.00,CLR,,0.00,WeatherDisplay:10.37,2013-02-04 11:31:00,
2013-02-04 13:35:00,69.1,45.6,29.71,SSE,158,5.8,5.8,43,0.00,CLR,,0.00,WeatherDisplay:10.37,2013-02-04 11:35:00,
2013-02-04 13:36:00,69.3,45.8,29.71,East,90,5.4,5.4,43,0.00,CLR,,0.00,WeatherDisplay:10.37,2013-02-04 11:36:00,
2013-02-04 13:40:00,69.3,45.8,29.71,WNW,292,3.5,3.5,43,0.00,CLR,,0.00,WeatherDisplay:10.37,2013-02-04 11:40:00,
2013-02-04 13:41:00,69.3,45.8,29.71,SSE,158,2.9,2.9,43,0.00,CLR,,0.00,WeatherDisplay:10.37,2013-02-04 11:41:00,
2013-02-04 13:45:00,69.6,46.1,29.71,NNE,22,4.6,4.6,43,0.00,CLR,,0.00,WeatherDisplay:10.37,2013-02-04 11:45:00,
2013-02-04 13:46:00,69.6,46.1,29.71,SSW,202,3.5,3.5,43,0.00,CLR,,0.00,WeatherDisplay:10.37,2013-02-04 11:46:00,
2013-02-04 13:50:00,69.8,45.0,29.71,SSE,158,4.6,4.6,41,0.00,CLR,,0.00,WeatherDisplay:10.37,2013-02-04 11:50:00,
2013-02-04 13:51:00,69.8,45.0,29.71,SSE,158,11.8,11.8,41,0.00,CLR,,0.00,WeatherDisplay:10.37,2013-02-04 11:51:00,
2013-02-04 13:52:00,69.4,46.0,29.71,SE,135,7.8,7.8,43,0.00,CLR,,0.00,WeatherDisplay:10.37,2013-02-04 11:52:00,
2013-02-04 13:55:00,69.1,45.6,29.71,SSE,158,8.1,8.1,43,0.00,CLR,,0.00,WeatherDisplay:10.37,2013-02-04 11:55:00,
2013-02-04 13:56:00,69.3,45.8,29.71,SE,135,3.5,3.5,43,0.00,CLR,,0.00,WeatherDisplay:10.37,2013-02-04 11:56:00,
2013-02-04 13:57:00,69.3,45.8,29.71,ESE,112,5.9,5.9,43,0.00,CLR,,0.00,WeatherDisplay:10.37,2013-02-04 11:57:00,
2013-02-04 14:00:00,69.1,46.2,29.71,South,180,6.4,6.4,44,0.00,CLR,,0.00,WeatherDisplay:10.37,2013-02-04 12:00:00,
2013-02-04 14:01:00,69.1,46.2,29.71,SSE,158,9.2,9.2,44,0.00,CLR,,0.00,WeatherDisplay:10.37,2013-02-04 12:01:00,
2013-02-04 14:02:00,68.9,46.1,29.71,SSE,158,10.4,10.4,44,0.00,CLR,,0.00,WeatherDisplay:10.37,2013-02-04 12:02:00,
2013-02-04 14:06:00,68.5,45.8,29.71,SSE,158,5.8,5.8,44,0.00,CLR,,0.00,WeatherDisplay:10.37,2013-02-04 12:06:00,
2013-02-04 14:07:00,68.4,45.6,29.71,SSE,158,5.8,5.8,44,0.00,CLR,,0.00,WeatherDisplay:10.37,2013-02-04 12:07:00,
2013-02-04 14:11:00,68.5,45.8,29.71,South,180,4.6,4.6,44,0.00,CLR,,0.00,WeatherDisplay:10.37,2013-02-04 12:11:00,
2013-02-04 14:12:00,68.5,45.8,29.71,SSE,158,6.9,6.9,44,0.00,CLR,,0.00,WeatherDisplay:10.37,2013-02-04 12:12:00,
2013-02-04 14:16:00,68.9,46.1,29.71,SE,135,5.8,5.8,44,0.00,CLR,,0.00,WeatherDisplay:10.37,2013-02-04 12:16:00,
2013-02-04 14:17:00,69.1,46.8,29.71,SE,135,6.9,6.9,45,0.00,CLR,,0.00,WeatherDisplay:10.37,2013-02-04 12:17:00,
2013-02-04 14:21:00,69.4,47.2,29.71,ESE,112,5.8,5.8,45,0.00,CLR,,0.00,WeatherDisplay:10.37,2013-02-04 12:21:00,
2013-02-04 14:22:00,69.4,46.6,29.71,ENE,68,5.6,5.6,44,0.00,CLR,,0.00,WeatherDisplay:10.37,2013-02-04 12:22:00,
2013-02-04 14:26:00,68.9,46.1,29.71,SSE,158,12.7,12.7,44,0.00,CLR,,0.00,WeatherDisplay:10.37,2013-02-04 12:26:00,
2013-02-04 14:27:00,68.9,46.1,29.71,SSE,158,12.7,12.7,44,0.00,CLR,,0.00,WeatherDisplay:10.37,2013-02-04 12:27:00,
2013-02-04 14:32:00,68.2,45.4,29.68,SSE,158,9.8,9.8,44,0.00,CLR,,0.00,WeatherDisplay:10.37,2013-02-04 12:32:00,
2013-02-04 14:37:00,67.8,45.1,29.68,SE,135,8.1,8.1,44,0.00,CLR,,0.00,WeatherDisplay:10.37,2013-02-04 12:37:00,
2013-02-04 14:38:00,67.8,45.1,29.68,SSE,158,7.4,7.4,44,0.00,CLR,,0.00,WeatherDisplay:10.37,2013-02-04 12:38:00,
2013-02-04 14:42:00,67.5,45.4,29.68,SE,135,9.2,9.2,45,0.00,CLR,,0.00,WeatherDisplay:10.37,2013-02-04 12:42:00,
2013-02-04 14:43:00,67.6,45.5,29.68,SE,135,9.2,9.2,45,0.00,CLR,,0.00,WeatherDisplay:10.37,2013-02-04 12:43:00,
2013-02-04 14:47:00,67.3,45.8,29.68,SSE,158,9.2,9.2,46,0.00,CLR,,0.00,WeatherDisplay:10.37,2013-02-04 12:47:00,
2013-02-04 14:48:00,67.3,45.8,29.68,SE,135,9.2,9.2,46,0.00,CLR,,0.00,WeatherDisplay:10.37,2013-02-04 12:48:00,
2013-02-04 14:52:00,66.6,44.5,29.68,SSW,202,12.7,12.7,45,0.00,CLR,,0.00,WeatherDisplay:10.37,2013-02-04 12:52:00,
2013-02-04 14:53:00,66.6,44.5,29.68,SSE,158,10.4,10.4,45,0.00,CLR,,0.00,WeatherDisplay:10.37,2013-02-04 12:53:00,
2013-02-04 14:57:00,66.6,45.1,29.68,SE,135,13.2,13.2,46,0.00,CLR,,0.00,WeatherDisplay:10.37,2013-02-04 12:57:00,
2013-02-04 14:58:00,66.2,44.2,29.68,ESE,112,13.8,13.8,45,0.00,CLR,,0.00,WeatherDisplay:10.37,2013-02-04 12:58:00,
2013-02-04 15:02:00,66.7,45.3,29.68,ESE,112,6.9,6.9,46,0.00,CLR,,0.00,WeatherDisplay:10.37,2013-02-04 13:02:00,
2013-02-04 15:03:00,66.7,45.3,29.68,SSE,158,3.5,3.5,46,0.00,CLR,,0.00,WeatherDisplay:10.37,2013-02-04 13:03:00,
2013-02-04 15:07:00,66.6,44.5,29.68,SSE,158,9.8,9.8,45,0.00,CLR,,0.00,WeatherDisplay:10.37,2013-02-04 13:07:00,
2013-02-04 15:08:00,66.6,44.5,29.68,SSE,158,13.0,13.0,45,0.00,CLR,,0.00,WeatherDisplay:10.37,2013-02-04 13:08:00,
2013-02-04 15:13:00,66.2,44.8,29.68,SE,135,8.1,8.1,46,0.00,CLR,,0.00,WeatherDisplay:10.37,2013-02-04 13:13:00,
2013-02-04 15:18:00,66.2,44.8,29.68,ESE,112,12.7,12.7,46,0.00,CLR,,0.00,WeatherDisplay:10.37,2013-02-04 13:18:00,
2013-02-04 15:23:00,66.4,45.5,29.68,SSE,158,8.5,8.5,47,0.00,CLR,,0.00,WeatherDisplay:10.37,2013-02-04 13:23:00,
2013-02-04 15:28:00,65.8,45.0,29.68,SSE,158,13.8,13.8,47,0.00,CLR,,0.00,WeatherDisplay:10.37,2013-02-04 13:28:00,
2013-02-04 15:29:00,65.8,45.0,29.68,SSE,158,12.7,12.7,47,0.00,CLR,,0.00,WeatherDisplay:10.37,2013-02-04 13:29:00,
2013-02-04 15:33:00,66.2,45.9,29.68,South,180,9.2,9.2,48,0.00,CLR,,0.00,WeatherDisplay:10.37,2013-02-04 13:33:00,
2013-02-04 15:34:00,66.2,45.9,29.68,SSE,158,9.2,9.2,48,0.00,CLR,,0.00,WeatherDisplay:10.37,2013-02-04 13:34:00,
2013-02-04 15:38:00,66.0,45.2,29.68,South,180,10.4,10.4,47,0.00,CLR,,0.00,WeatherDisplay:10.37,2013-02-04 13:38:00,
2013-02-04 15:39:00,66.0,45.2,29.68,ESE,112,10.4,10.4,47,0.00,CLR,,0.00,WeatherDisplay:10.37,2013-02-04 13:39:00,
2013-02-04 15:43:00,65.8,45.6,29.68,SSE,158,8.1,8.1,48,0.00,CLR,,0.00,WeatherDisplay:10.37,2013-02-04 13:43:00,
2013-02-04 15:44:00,65.8,45.6,29.68,SSE,158,10.4,10.4,48,0.00,CLR,,0.00,WeatherDisplay:10.37,2013-02-04 13:44:00,
2013-02-04 15:45:00,65.8,45.6,29.68,SSE,154,7.0,13.0,48,0.00,CLR,,0.00,WeatherDisplay:10.37,2013-02-04 13:45:00,
2013-02-04 15:48:00,65.8,46.1,29.68,South,180,5.8,5.8,49,0.00,CLR,,0.00,WeatherDisplay:10.37,2013-02-04 13:48:00,
2013-02-04 15:49:00,66.0,46.3,29.68,SSE,158,5.8,5.8,49,0.00,CLR,,0.00,WeatherDisplay:10.37,2013-02-04 13:49:00,
2013-02-04 15:50:00,66.0,46.3,29.68,NE,45,3.5,3.5,49,0.00,CLR,,0.00,WeatherDisplay:10.37,2013-02-04 13:50:00,
2013-02-04 15:53:00,66.4,46.6,29.68,SSE,158,7.4,7.4,49,0.00,CLR,,0.00,WeatherDisplay:10.37,2013-02-04 13:53:00,
2013-02-04 15:54:00,66.4,46.6,29.68,ESE,112,8.1,8.1,49,0.00,CLR,,0.00,WeatherDisplay:10.37,2013-02-04 13:54:00,
2013-02-04 15:55:00,66.4,46.6,29.68,SE,135,6.9,6.9,49,0.00,CLR,,0.00,WeatherDisplay:10.37,2013-02-04 13:55:00,
2013-02-04 15:58:00,66.0,45.2,29.68,SSE,158,12.7,12.7,47,0.00,CLR,,0.00,WeatherDisplay:10.37,2013-02-04 13:58:00,
2013-02-04 15:59:00,66.0,45.2,29.68,SSE,158,8.1,8.1,47,0.00,CLR,,0.00,WeatherDisplay:10.37,2013-02-04 13:59:00,
2013-02-04 16:00:00,65.8,45.0,29.68,South,180,9.2,9.2,47,0.00,CLR,,0.00,WeatherDisplay:10.37,2013-02-04 14:00:00,
2013-02-04 16:03:00,66.2,45.4,29.68,SE,135,9.2,9.2,47,0.00,CLR,,0.00,WeatherDisplay:10.37,2013-02-04 14:03:00,
2013-02-04 16:04:00,66.4,45.5,29.68,SSE,158,3.5,3.5,47,0.00,CLR,,0.00,WeatherDisplay:10.37,2013-02-04 14:04:00,
2013-02-04 16:05:00,66.4,45.5,29.68,SSE,158,4.0,4.0,47,0.00,CLR,,0.00,WeatherDisplay:10.37,2013-02-04 14:05:00,
2013-02-04 16:09:00,66.7,45.9,29.68,ESE,112,8.1,8.1,47,0.00,CLR,,0.00,WeatherDisplay:10.37,2013-02-04 14:09:00,
2013-02-04 16:10:00,66.7,45.9,29.68,ESE,112,8.1,8.1,47,0.00,CLR,,0.00,WeatherDisplay:10.37,2013-02-04 14:10:00,
2013-02-04 16:14:00,67.1,45.6,29.68,SSE,158,5.6,5.6,46,0.00,CLR,,0.00,WeatherDisplay:10.37,2013-02-04 14:14:00,
2013-02-04 16:15:00,67.1,45.6,29.68,SE,135,5.8,5.8,46,0.00,CLR,,0.00,WeatherDisplay:10.37,2013-02-04 14:15:00,
2013-02-04 16:19:00,67.3,45.8,29.68,SSE,158,8.1,8.1,46,0.00,CLR,,0.00,WeatherDisplay:10.37,2013-02-04 14:19:00,
2013-02-04 16:20:00,67.3,45.8,29.68,SSE,158,3.5,3.6,46,0.00,CLR,,0.00,WeatherDisplay:10.37,2013-02-04 14:20:00,
2013-02-04 16:24:00,66.7,45.3,29.68,SE,135,8.1,8.1,46,0.00,CLR,,0.00,WeatherDisplay:10.37,2013-02-04 14:24:00,
2013-02-04 16:25:00,66.7,45.3,29.68,SE,135,5.8,5.8,46,0.00,CLR,,0.00,WeatherDisplay:10.37,2013-02-04 14:25:00,
2013-02-04 16:26:00,66.7,45.3,29.68,SSW,202,5.8,5.8,46,0.00,CLR,,0.00,WeatherDisplay:10.37,2013-02-04 14:26:00,
2013-02-04 16:29:00,66.2,45.4,29.68,SSE,158,7.1,7.1,47,0.00,CLR,,0.00,WeatherDisplay:10.37,2013-02-04 14:29:00,
2013-02-04 16:30:00,66.2,45.4,29.68,SSE,158,8.1,8.1,47,0.00,CLR,,0.00,WeatherDisplay:10.37,2013-02-04 14:30:00,
2013-02-04 16:31:00,66.2,45.4,29.68,SSE,158,8.1,8.1,47,0.00,CLR,,0.00,WeatherDisplay:10.37,2013-02-04 14:31:00,
2013-02-04 16:35:00,65.8,45.6,29.68,ESE,112,8.1,8.1,48,0.00,CLR,,0.00,WeatherDisplay:10.37,2013-02-04 14:35:00,
2013-02-04 16:36:00,66.0,46.3,29.68,NE,45,6.2,6.2,49,0.00,CLR,,0.00,WeatherDisplay:10.37,2013-02-04 14:36:00,
2013-02-04 16:40:00,66.2,46.5,29.68,ESE,112,4.6,4.6,49,0.00,CLR,,0.00,WeatherDisplay:10.37,2013-02-04 14:40:00,
2013-02-04 16:41:00,66.0,46.3,29.68,SE,135,6.0,6.0,49,0.00,CLR,,0.00,WeatherDisplay:10.37,2013-02-04 14:41:00,
2013-02-04 16:45:00,65.8,47.2,29.68,SSE,158,6.7,6.7,51,0.00,CLR,,0.00,WeatherDisplay:10.37,2013-02-04 14:45:00,
2013-02-04 16:46:00,65.8,47.2,29.68,SSE,158,10.9,10.9,51,0.00,CLR,,0.00,WeatherDisplay:10.37,2013-02-04 14:46:00,
2013-02-04 16:50:00,65.3,48.2,29.68,SE,135,6.9,6.9,54,0.00,CLR,,0.00,WeatherDisplay:10.37,2013-02-04 14:50:00,
2013-02-04 16:51:00,65.1,48.1,29.68,ESE,112,7.1,7.1,54,0.00,CLR,,0.00,WeatherDisplay:10.37,2013-02-04 14:51:00,
2013-02-04 16:55:00,64.8,48.7,29.68,SE,135,8.1,8.1,56,0.00,CLR,,0.00,WeatherDisplay:10.37,2013-02-04 14:55:00,
2013-02-04 16:56:00,64.8,48.7,29.68,SSE,158,8.1,8.1,56,0.00,CLR,,0.00,WeatherDisplay:10.37,2013-02-04 14:56:00,
2013-02-04 17:00:00,64.4,47.9,29.68,SSE,158,10.4,10.4,55,0.00,CLR,,0.00,WeatherDisplay:10.37,2013-02-04 15:00:00,
2013-02-04 17:01:00,64.4,47.9,29.68,SSE,158,10.4,10.4,55,0.00,CLR,,0.00,WeatherDisplay:10.37,2013-02-04 15:01:00,
2013-02-04 17:06:00,64.0,48.5,29.68,SE,135,4.6,4.6,57,0.00,CLR,,0.00,WeatherDisplay:10.37,2013-02-04 15:06:00,
2013-02-04 17:11:00,63.7,49.1,29.68,SSE,158,3.6,3.6,59,0.00,CLR,,0.00,WeatherDisplay:10.37,2013-02-04 15:11:00,
2013-02-04 17:12:00,63.7,48.6,29.68,SSE,158,3.5,3.5,58,0.00,CLR,,0.00,WeatherDisplay:10.37,2013-02-04 15:12:00,
2013-02-04 17:16:00,63.3,48.7,29.68,SSE,158,7.4,7.4,59,0.00,CLR,,0.00,WeatherDisplay:10.37,2013-02-04 15:16:00,
2013-02-04 17:17:00,63.3,49.2,29.68,SE,135,6.9,6.9,60,0.00,CLR,,0.00,WeatherDisplay:10.37,2013-02-04 15:17:00,
2013-02-04 17:21:00,63.0,49.3,29.68,ESE,112,4.6,4.6,61,0.00,CLR,,0.00,WeatherDisplay:10.37,2013-02-04 15:21:00,
2013-02-04 17:22:00,63.0,49.3,29.68,ESE,112,5.8,5.8,61,0.00,CLR,,0.00,WeatherDisplay:10.37,2013-02-04 15:22:00,
2013-02-04 17:26:00,62.8,49.6,29.68,SE,135,6.4,6.4,62,0.00,CLR,,0.00,WeatherDisplay:10.37,2013-02-04 15:26:00,
2013-02-04 17:27:00,62.8,49.6,29.68,SSE,158,7.4,7.4,62,0.00,CLR,,0.00,WeatherDisplay:10.37,2013-02-04 15:27:00,
2013-02-04 17:31:00,62.4,50.9,29.68,ESE,112,3.8,3.8,66,0.00,CLR,,0.00,WeatherDisplay:10.37,2013-02-04 15:31:00,
2013-02-04 17:32:00,62.4,50.9,29.68,ESE,112,4.6,4.6,66,0.00,CLR,,0.00,WeatherDisplay:10.37,2013-02-04 15:32:00,
2013-02-04 17:36:00,62.4,50.9,29.68,SSE,158,2.3,2.3,66,0.00,CLR,,0.00,WeatherDisplay:10.37,2013-02-04 15:36:00,
2013-02-04 17:37:00,62.4,50.9,29.68,SE,135,2.3,2.3,66,0.00,CLR,,0.00,WeatherDisplay:10.37,2013-02-04 15:37:00,
2013-02-04 17:41:00,62.2,51.9,29.68,SE,135,5.8,5.8,69,0.00,CLR,,0.00,WeatherDisplay:10.37,2013-02-04 15:41:00,
2013-02-04 17:42:00,62.2,51.9,29.68,SE,135,5.8,5.8,69,0.00,CLR,,0.00,WeatherDisplay:10.37,2013-02-04 15:42:00,
2013-02-04 17:47:00,61.9,52.4,29.71,SSE,158,3.1,3.1,71,0.00,CLR,,0.00,WeatherDisplay:10.37,2013-02-04 15:47:00,
2013-02-04 17:52:00,61.7,52.2,29.71,SSE,158,4.6,4.6,71,0.00,CLR,,0.00,WeatherDisplay:10.37,2013-02-04 15:52:00,
2013-02-04 17:57:00,61.5,51.6,29.71,SE,135,2.3,2.3,70,0.00,CLR,,0.00,WeatherDisplay:10.37,2013-02-04 15:57:00,
2013-02-04 17:58:00,61.3,51.9,29.71,ESE,112,2.3,2.3,71,0.00,CLR,,0.00,WeatherDisplay:10.37,2013-02-04 15:58:00,
2013-02-04 18:02:00,61.3,51.9,29.71,SSE,158,3.8,3.8,71,0.00,CLR,,0.00,WeatherDisplay:10.37,2013-02-04 16:02:00,
2013-02-04 18:03:00,61.2,52.4,29.71,SE,135,3.5,3.5,73,0.00,CLR,,0.00,WeatherDisplay:10.37,2013-02-04 16:03:00,
2013-02-04 18:07:00,61.0,52.3,29.71,ESE,112,2.3,2.3,73,0.00,CLR,,0.00,WeatherDisplay:10.37,2013-02-04 16:07:00,
2013-02-04 18:08:00,61.0,51.9,29.71,ESE,112,0.0,0.0,72,0.00,CLR,,0.00,WeatherDisplay:10.37,2013-02-04 16:08:00,
2013-02-04 18:12:00,60.8,52.1,29.71,ENE,68,0.0,0.0,73,0.00,CLR,,0.00,WeatherDisplay:10.37,2013-02-04 16:12:00,
2013-02-04 18:13:00,60.8,52.1,29.71,ENE,68,0.0,0.0,73,0.00,CLR,,0.00,WeatherDisplay:10.37,2013-02-04 16:13:00,
2013-02-04 18:17:00,60.6,52.6,29.71,ESE,112,2.3,2.3,75,0.00,CLR,,0.00,WeatherDisplay:10.37,2013-02-04 16:17:00,
2013-02-04 18:18:00,60.6,52.6,29.71,ESE,112,1.1,1.1,75,0.00,CLR,,0.00,WeatherDisplay:10.37,2013-02-04 16:18:00,
2013-02-04 18:22:00,60.4,52.1,29.71,ESE,112,1.6,1.6,74,0.00,CLR,,0.00,WeatherDisplay:10.37,2013-02-04 16:22:00,
2013-02-04 18:23:00,60.4,52.1,29.71,ESE,112,1.6,1.6,74,0.00,CLR,,0.00,WeatherDisplay:10.37,2013-02-04 16:23:00,
2013-02-04 18:27:00,60.4,52.5,29.71,East,90,2.3,2.3,75,0.00,CLR,,0.00,WeatherDisplay:10.37,2013-02-04 16:27:00,
2013-02-04 18:28:00,60.4,52.5,29.71,ESE,112,2.3,2.3,75,0.00,CLR,,0.00,WeatherDisplay:10.37,2013-02-04 16:28:00,
2013-02-04 18:29:00,60.4,52.8,29.71,ENE,68,2.9,2.9,76,0.00,CLR,,0.00,WeatherDisplay:10.37,2013-02-04 16:29:00,
2013-02-04 18:32:00,60.4,52.8,29.71,ESE,112,2.3,2.3,76,0.00,CLR,,0.00,WeatherDisplay:10.37,2013-02-04 16:32:00,
2013-02-04 18:33:00,60.4,52.8,29.71,ESE,112,2.3,2.3,76,0.00,CLR,,0.00,WeatherDisplay:10.37,2013-02-04 16:33:00,
2013-02-04 18:34:00,60.4,52.5,29.71,ESE,112,1.1,1.1,75,0.00,CLR,,0.00,WeatherDisplay:10.37,2013-02-04 16:34:00,
2013-02-04 18:37:00,60.4,52.5,29.71,East,90,1.4,0.0,75,0.00,CLR,,0.00,WeatherDisplay:10.37,2013-02-04 16:37:00,
2013-02-04 18:38:00,60.3,52.3,29.71,East,90,1.4,1.4,75,0.00,CLR,,0.00,WeatherDisplay:10.37,2013-02-04 16:38:00,
2013-02-04 18:39:00,60.3,52.3,29.71,East,90,2.3,2.3,75,0.00,CLR,,0.00,WeatherDisplay:10.37,2013-02-04 16:39:00,
2013-02-04 18:43:00,60.1,52.5,29.71,East,90,3.5,3.5,76,0.00,CLR,,0.00,WeatherDisplay:10.37,2013-02-04 16:43:00,
2013-02-04 18:44:00,60.1,52.5,29.71,ENE,68,3.5,3.5,76,0.00,CLR,,0.00,WeatherDisplay:10.37,2013-02-04 16:44:00,
2013-02-04 18:48:00,60.1,52.5,29.71,ENE,68,1.1,1.1,76,0.00,CLR,,0.00,WeatherDisplay:10.37,2013-02-04 16:48:00,
2013-02-04 18:49:00,60.1,52.1,29.71,ENE,68,2.3,2.3,75,0.00,CLR,,0.00,WeatherDisplay:10.37,2013-02-04 16:49:00,
2013-02-04 18:53:00,60.1,52.1,29.71,ENE,68,2.4,2.4,75,0.00,CLR,,0.00,WeatherDisplay:10.37,2013-02-04 16:53:00,
2013-02-04 18:54:00,60.1,52.5,29.71,NE,45,2.9,2.9,76,0.00,CLR,,0.00,WeatherDisplay:10.37,2013-02-04 16:54:00,
2013-02-04 18:58:00,60.1,52.5,29.71,ENE,68,2.3,2.3,76,0.00,CLR,,0.00,WeatherDisplay:10.37,2013-02-04 16:58:00,
2013-02-04 18:59:00,60.1,52.5,29.71,ENE,68,2.3,2.3,76,0.00,CLR,,0.00,WeatherDisplay:10.37,2013-02-04 16:59:00,
2013-02-04 19:03:00,59.9,52.3,29.71,ENE,68,2.3,2.3,76,0.00,CLR,,0.00,WeatherDisplay:10.37,2013-02-04 17:03:00,
2013-02-04 19:04:00,59.9,52.3,29.71,ENE,68,2.6,2.6,76,0.00,CLR,,0.00,WeatherDisplay:10.37,2013-02-04 17:04:00,
2013-02-04 19:05:00,59.9,52.3,29.71,ENE,68,3.5,3.5,76,0.00,CLR,,0.00,WeatherDisplay:10.37,2013-02-04 17:05:00,
2013-02-04 19:08:00,60.1,52.5,29.71,ENE,68,4.6,4.6,76,0.00,CLR,,0.00,WeatherDisplay:10.37,2013-02-04 17:08:00,
2013-02-04 19:09:00,60.1,52.5,29.71,ENE,68,4.6,4.6,76,0.00,CLR,,0.00,WeatherDisplay:10.37,2013-02-04 17:09:00,
2013-02-04 19:10:00,60.1,52.5,29.71,ENE,68,3.5,3.5,76,0.00,CLR,,0.00,WeatherDisplay:10.37,2013-02-04 17:10:00,
2013-02-04 19:13:00,60.1,52.8,29.71,ENE,68,4.6,4.6,77,0.00,CLR,,0.00,WeatherDisplay:10.37,2013-02-04 17:13:00,
2013-02-04 19:14:00,60.1,52.8,29.71,NE,45,4.6,4.6,77,0.00,CLR,,0.00,WeatherDisplay:10.37,2013-02-04 17:14:00,
2013-02-04 19:15:00,60.1,52.8,29.71,ENE,68,4.6,4.6,77,0.00,CLR,,0.00,WeatherDisplay:10.37,2013-02-04 17:15:00,
2013-02-04 19:18:00,60.1,52.8,29.74,ENE,68,4.3,4.3,77,0.00,CLR,,0.00,WeatherDisplay:10.37,2013-02-04 17:18:00,
2013-02-04 19:20:00,60.1,52.8,29.74,ENE,60,3.0,5.0,77,0.00,CLR,,0.00,WeatherDisplay:10.37,2013-02-04 17:20:00,
2013-02-04 19:24:00,60.1,53.2,29.74,NNE,22,5.8,5.8,78,0.00,CLR,,0.00,WeatherDisplay:10.37,2013-02-04 17:24:00,
2013-02-04 19:25:00,60.1,53.2,29.74,ENE,68,5.8,5.8,78,0.00,CLR,,0.00,WeatherDisplay:10.37,2013-02-04 17:25:00,
2013-02-04 19:26:00,60.1,53.2,29.74,NNE,22,5.8,5.8,78,0.00,CLR,,0.00,WeatherDisplay:10.37,2013-02-04 17:26:00,
2013-02-04 19:29:00,60.1,53.2,29.74,ENE,68,6.9,6.9,78,0.00,CLR,,0.00,WeatherDisplay:10.37,2013-02-04 17:29:00,
2013-02-04 19:30:00,60.1,53.5,29.74,NE,45,8.1,8.1,79,0.00,CLR,,0.00,WeatherDisplay:10.37,2013-02-04 17:30:00,
2013-02-04 19:31:00,60.1,53.9,29.74,ENE,68,6.9,6.9,80,0.00,CLR,,0.00,WeatherDisplay:10.37,2013-02-04 17:31:00,
2013-02-04 19:34:00,60.1,53.9,29.74,ENE,68,6.9,6.9,80,0.00,CLR,,0.00,WeatherDisplay:10.37,2013-02-04 17:34:00,
2013-02-04 19:35:00,60.1,54.2,29.74,NNE,22,5.4,5.4,81,0.00,CLR,,0.00,WeatherDisplay:10.37,2013-02-04 17:35:00,
2013-02-04 19:36:00,60.1,54.2,29.74,ENE,68,5.8,5.8,81,0.00,CLR,,0.00,WeatherDisplay:10.37,2013-02-04 17:36:00,
2013-02-04 19:39:00,59.9,54.1,29.74,ENE,68,5.6,5.6,81,0.00,CLR,,0.00,WeatherDisplay:10.37,2013-02-04 17:39:00,
2013-02-04 19:40:00,59.9,54.4,29.74,ENE,68,5.9,5.9,82,0.00,CLR,,0.00,WeatherDisplay:10.37,2013-02-04 17:40:00,
2013-02-04 19:41:00,59.9,54.4,29.74,NNE,22,5.8,5.8,82,0.00,CLR,,0.00,WeatherDisplay:10.37,2013-02-04 17:41:00,
2013-02-04 19:45:00,59.9,54.4,29.74,NE,45,4.6,4.6,82,0.00,CLR,,0.00,WeatherDisplay:10.37,2013-02-04 17:45:00,
2013-02-04 19:46:00,59.9,54.4,29.74,ENE,68,3.6,3.6,82,0.00,CLR,,0.00,WeatherDisplay:10.37,2013-02-04 17:46:00,
2013-02-04 19:50:00,59.7,54.2,29.74,NE,45,3.5,3.5,82,0.00,CLR,,0.00,WeatherDisplay:10.37,2013-02-04 17:50:00,
2013-02-04 19:51:00,59.7,54.2,29.74,NE,45,3.5,3.5,82,0.00,CLR,,0.00,WeatherDisplay:10.37,2013-02-04 17:51:00,
2013-02-04 19:55:00,59.7,54.2,29.74,ENE,68,2.3,2.3,82,0.00,CLR,,0.00,WeatherDisplay:10.37,2013-02-04 17:55:00,
2013-02-04 19:56:00,59.7,54.2,29.74,ENE,68,2.3,2.3,82,0.00,CLR,,0.00,WeatherDisplay:10.37,2013-02-04 17:56:00,
2013-02-04 20:00:00,59.5,54.0,29.74,ENE,68,3.5,3.5,82,0.00,CLR,,0.00,WeatherDisplay:10.37,2013-02-04 18:00:00,
2013-02-04 20:01:00,59.5,54.0,29.74,ENE,68,2.3,2.3,82,0.00,CLR,,0.00,WeatherDisplay:10.37,2013-02-04 18:01:00,
2013-02-04 20:02:00,59.5,53.7,29.74,ENE,68,2.6,2.6,81,0.00,CLR,,0.00,WeatherDisplay:10.37,2013-02-04 18:02:00,
2013-02-04 20:03:00,59.5,53.7,29.74,ENE,68,2.6,2.6,81,0.00,CLR,,0.00,WeatherDisplay:10.37,2013-02-04 18:03:00,
2013-02-04 20:06:00,59.5,53.7,29.74,ENE,68,1.6,0.0,81,0.00,CLR,,0.00,WeatherDisplay:10.37,2013-02-04 18:06:00,
2013-02-04 20:07:00,59.4,53.5,29.74,ENE,68,2.9,2.9,81,0.00,CLR,,0.00,WeatherDisplay:10.37,2013-02-04 18:07:00,
2013-02-04 20:08:00,59.4,53.5,29.74,ENE,68,2.6,2.6,81,0.00,CLR,,0.00,WeatherDisplay:10.37,2013-02-04 18:08:00,
2013-02-04 20:11:00,59.4,53.5,29.74,NE,45,3.6,3.6,81,0.00,CLR,,0.00,WeatherDisplay:10.37,2013-02-04 18:11:00,
2013-02-04 20:13:00,59.4,53.9,29.74,NE,45,3.5,3.5,82,0.00,CLR,,0.00,WeatherDisplay:10.37,2013-02-04 18:13:00,
2013-02-04 20:16:00,59.4,53.9,29.74,NNE,22,3.5,3.6,82,0.00,CLR,,0.00,WeatherDisplay:10.37,2013-02-04 18:16:00,
2013-02-04 20:17:00,59.4,53.9,29.74,NE,45,3.5,3.5,82,0.00,CLR,,0.00,WeatherDisplay:10.37,2013-02-04 18:17:00,
2013-02-04 20:18:00,59.4,54.2,29.74,ENE,68,4.3,4.3,83,0.00,CLR,,0.00,WeatherDisplay:10.37,2013-02-04 18:18:00,
2013-02-04 20:19:00,59.4,54.2,29.74,NNE,22,4.6,4.6,83,0.00,CLR,,0.00,WeatherDisplay:10.37,2013-02-04 18:19:00,
2013-02-04 20:21:00,59.5,54.4,29.74,NE,45,4.3,4.3,83,0.00,CLR,,0.00,WeatherDisplay:10.37,2013-02-04 18:21:00,
2013-02-04 20:22:00,59.5,54.7,29.74,NNE,22,5.8,5.8,84,0.00,CLR,,0.00,WeatherDisplay:10.37,2013-02-04 18:22:00,
2013-02-04 20:23:00,59.5,54.7,29.74,North,0,5.8,5.8,84,0.00,CLR,,0.00,WeatherDisplay:10.37,2013-02-04 18:23:00,
2013-02-04 20:24:00,59.5,54.7,29.74,NNE,22,6.2,6.2,84,0.00,CLR,,0.00,WeatherDisplay:10.37,2013-02-04 18:24:00,
2013-02-04 20:26:00,59.5,54.7,29.74,NNE,22,3.8,3.8,84,0.00,CLR,,0.00,WeatherDisplay:10.37,2013-02-04 18:26:00,
2013-02-04 20:27:00,59.5,54.7,29.74,NE,45,4.6,4.6,84,0.00,CLR,,0.00,WeatherDisplay:10.37,2013-02-04 18:27:00,
2013-02-04 20:29:00,59.5,54.7,29.74,NNE,22,4.6,4.6,84,0.00,CLR,,0.00,WeatherDisplay:10.37,2013-02-04 18:29:00,
2013-02-04 20:31:00,59.5,54.7,29.71,ENE,68,3.6,3.6,84,0.00,CLR,,0.00,WeatherDisplay:10.37,2013-02-04 18:31:00,
2013-02-04 20:33:00,59.5,54.7,29.71,ENE,68,3.5,3.5,84,0.00,CLR,,0.00,WeatherDisplay:10.37,2013-02-04 18:33:00,
2013-02-04 20:34:00,59.5,54.4,29.71,ENE,68,2.3,2.3,83,0.00,CLR,,0.00,WeatherDisplay:10.37,2013-02-04 18:34:00,
2013-02-04 20:36:00,59.4,54.2,29.71,East,90,2.3,2.3,83,0.00,CLR,,0.00,WeatherDisplay:10.37,2013-02-04 18:36:00,
2013-02-04 20:38:00,59.4,54.2,29.71,East,90,1.6,1.6,83,0.00,CLR,,0.00,WeatherDisplay:10.37,2013-02-04 18:38:00,
2013-02-04 20:39:00,59.2,54.0,29.71,SE,135,4.9,4.9,83,0.00,CLR,,0.00,WeatherDisplay:10.37,2013-02-04 18:39:00,
2013-02-04 20:40:00,59.4,54.2,29.71,SE,135,4.6,4.6,83,0.00,CLR,,0.00,WeatherDisplay:10.37,2013-02-04 18:40:00,
2013-02-04 20:41:00,59.4,54.2,29.71,SSE,158,4.6,4.6,83,0.00,CLR,,0.00,WeatherDisplay:10.37,2013-02-04 18:41:00,
2013-02-04 20:43:00,59.4,54.5,29.71,SE,135,5.8,5.8,84,0.00,CLR,,0.00,WeatherDisplay:10.37,2013-02-04 18:43:00,
2013-02-04 20:44:00,59.4,54.5,29.71,NNE,22,4.6,4.6,84,0.00,CLR,,0.00,WeatherDisplay:10.37,2013-02-04 18:44:00,
2013-02-04 20:45:00,59.4,54.5,29.71,NNE,22,3.5,3.5,84,0.00,CLR,,0.00,WeatherDisplay:10.37,2013-02-04 18:45:00,
2013-02-04 20:46:00,59.4,54.5,29.71,East,90,1.1,1.1,84,0.00,CLR,,0.00,WeatherDisplay:10.37,2013-02-04 18:46:00,
2013-02-04 20:48:00,59.5,54.4,29.71,SE,135,3.5,3.5,83,0.00,CLR,,0.00,WeatherDisplay:10.37,2013-02-04 18:48:00,
2013-02-04 20:50:00,59.4,54.2,29.71,SE,135,2.3,0.0,83,0.00,CLR,,0.00,WeatherDisplay:10.37,2013-02-04 18:50:00,
2013-02-04 20:51:00,59.4,54.2,29.71,SE,135,1.6,0.0,83,0.00,CLR,,0.00,WeatherDisplay:10.37,2013-02-04 18:51:00,
2013-02-04 20:53:00,59.4,54.2,29.71,SE,135,1.1,1.1,83,0.00,CLR,,0.00,WeatherDisplay:10.37,2013-02-04 18:53:00,
2013-02-04 20:55:00,59.4,54.2,29.71,ESE,114,2.0,3.0,83,0.00,CLR,,0.00,WeatherDisplay:10.37,2013-02-04 18:55:00,
2013-02-04 20:56:00,59.4,54.2,29.71,East,90,3.5,3.5,83,0.00,CLR,,0.00,WeatherDisplay:10.37,2013-02-04 18:56:00,
2013-02-04 20:58:00,59.4,54.2,29.71,NE,45,2.3,2.3,83,0.00,CLR,,0.00,WeatherDisplay:10.37,2013-02-04 18:58:00,
2013-02-04 21:00:00,59.2,54.0,29.71,NE,45,1.4,1.4,83,0.00,CLR,,0.00,WeatherDisplay:10.37,2013-02-04 19:00:00,
2013-02-04 21:01:00,59.2,54.0,29.71,NE,45,2.0,2.0,83,0.00,CLR,,0.00,WeatherDisplay:10.37,2013-02-04 19:01:00,
2013-02-04 21:03:00,59.2,54.0,29.71,East,90,2.3,2.3,83,0.00,CLR,,0.00,WeatherDisplay:10.37,2013-02-04 19:03:00,
2013-02-04 21:06:00,59.4,54.2,29.71,SSE,158,2.3,2.3,83,0.00,CLR,,0.00,WeatherDisplay:10.37,2013-02-04 19:06:00,
2013-02-04 21:07:00,59.4,54.2,29.71,SSE,158,2.4,2.4,83,0.00,CLR,,0.00,WeatherDisplay:10.37,2013-02-04 19:07:00,
2013-02-04 21:08:00,59.4,54.2,29.71,SSE,158,2.3,2.3,83,0.00,CLR,,0.00,WeatherDisplay:10.37,2013-02-04 19:08:00,
2013-02-04 21:11:00,59.2,54.0,29.71,SSE,158,1.1,1.1,83,0.00,CLR,,0.00,WeatherDisplay:10.37,2013-02-04 19:11:00,
2013-02-04 21:12:00,59.2,54.0,29.71,SSE,158,0.0,0.0,83,0.00,CLR,,0.00,WeatherDisplay:10.37,2013-02-04 19:12:00,
2013-02-04 21:13:00,59.2,54.0,29.71,SSE,158,1.1,0.0,83,0.00,CLR,,0.00,WeatherDisplay:10.37,2013-02-04 19:13:00,
2013-02-04 21:16:00,59.0,53.5,29.74,SSE,158,0.0,0.0,82,0.00,CLR,,0.00,WeatherDisplay:10.37,2013-02-04 19:16:00,
2013-02-04 21:17:00,59.0,53.5,29.74,SSE,158,0.0,0.0,82,0.00,CLR,,0.00,WeatherDisplay:10.37,2013-02-04 19:17:00,
2013-02-04 21:18:00,58.8,53.7,29.74,SSE,158,1.6,0.0,83,0.00,CLR,,0.00,WeatherDisplay:10.37,2013-02-04 19:18:00,
2013-02-04 21:21:00,58.8,53.7,29.74,SSE,158,1.1,1.1,83,0.00,CLR,,0.00,WeatherDisplay:10.37,2013-02-04 19:21:00,
2013-02-04 21:22:00,58.8,53.7,29.74,East,90,2.3,2.3,83,0.00,CLR,,0.00,WeatherDisplay:10.37,2013-02-04 19:22:00,
2013-02-04 21:23:00,58.8,53.7,29.74,East,90,2.3,2.3,83,0.00,CLR,,0.00,WeatherDisplay:10.37,2013-02-04 19:23:00,
2013-02-04 21:24:00,58.8,53.7,29.74,ESE,112,2.3,2.3,83,0.00,CLR,,0.00,WeatherDisplay:10.37,2013-02-04 19:24:00,
2013-02-04 21:26:00,58.8,53.7,29.74,ESE,112,1.1,1.1,83,0.00,CLR,,0.00,WeatherDisplay:10.37,2013-02-04 19:26:00,
2013-02-04 21:27:00,58.6,53.5,29.74,ESE,112,1.1,0.0,83,0.00,CLR,,0.00,WeatherDisplay:10.37,2013-02-04 19:27:00,
2013-02-04 21:28:00,58.6,53.5,29.74,ESE,112,1.1,0.0,83,0.00,CLR,,0.00,WeatherDisplay:10.37,2013-02-04 19:28:00,
2013-02-04 21:29:00,58.6,53.5,29.74,ESE,112,0.0,0.0,83,0.00,CLR,,0.00,WeatherDisplay:10.37,2013-02-04 19:29:00,
2013-02-04 21:31:00,58.5,53.3,29.71,ESE,112,0.0,0.0,83,0.00,CLR,,0.00,WeatherDisplay:10.37,2013-02-04 19:31:00,
2013-02-04 21:33:00,58.5,53.3,29.71,ESE,112,2.6,0.0,83,0.00,CLR,,0.00,WeatherDisplay:10.37,2013-02-04 19:33:00,
2013-02-04 21:34:00,58.6,53.8,29.71,SE,135,2.3,2.3,84,0.00,CLR,,0.00,WeatherDisplay:10.37,2013-02-04 19:34:00,
2013-02-04 21:36:00,58.5,53.6,29.71,SE,135,0.9,0.0,84,0.00,CLR,,0.00,WeatherDisplay:10.37,2013-02-04 19:36:00,
2013-02-04 21:38:00,58.5,53.6,29.71,SE,135,1.1,0.0,84,0.00,CLR,,0.00,WeatherDisplay:10.37,2013-02-04 19:38:00,
2013-02-04 21:40:00,58.5,53.3,29.71,SE,135,0.0,0.0,83,0.00,CLR,,0.00,WeatherDisplay:10.37,2013-02-04 19:40:00,
2013-02-04 21:41:00,58.3,53.1,29.71,SE,135,0.0,0.0,83,0.00,CLR,,0.00,WeatherDisplay:10.37,2013-02-04 19:41:00,
2013-02-04 21:43:00,58.3,53.1,29.71,SE,135,0.0,0.0,83,0.00,CLR,,0.00,WeatherDisplay:10.37,2013-02-04 19:43:00,
2013-02-04 21:45:00,58.3,53.5,29.71,SE,135,1.4,1.4,84,0.00,CLR,,0.00,WeatherDisplay:10.37,2013-02-04 19:45:00,
2013-02-04 21:47:00,58.3,53.5,29.74,SE,135,1.1,1.1,84,0.00,CLR,,0.00,WeatherDisplay:10.37,2013-02-04 19:47:00,
2013-02-04 21:48:00,58.3,53.5,29.74,NNW,338,3.5,3.5,84,0.00,CLR,,0.00,WeatherDisplay:10.37,2013-02-04 19:48:00,
2013-02-04 21:50:00,58.5,54.0,29.74,ESE,112,3.5,3.5,85,0.00,CLR,,0.00,WeatherDisplay:10.37,2013-02-04 19:50:00,
2013-02-04 21:52:00,58.6,54.8,29.74,SE,135,4.6,4.6,87,0.00,CLR,,0.00,WeatherDisplay:10.37,2013-02-04 19:52:00,
2013-02-04 21:53:00,58.6,54.8,29.74,SSE,158,4.6,4.6,87,0.00,CLR,,0.00,WeatherDisplay:10.37,2013-02-04 19:53:00,
2013-02-04 21:55:00,58.8,55.3,29.74,SE,135,3.5,3.5,88,0.00,CLR,,0.00,WeatherDisplay:10.37,2013-02-04 19:55:00,
2013-02-04 21:57:00,58.6,54.8,29.74,ENE,68,2.0,2.0,87,0.00,CLR,,0.00,WeatherDisplay:10.37,2013-02-04 19:57:00,
2013-02-04 21:59:00,58.6,54.8,29.74,ENE,68,2.3,2.3,87,0.00,CLR,,0.00,WeatherDisplay:10.37,2013-02-04 19:59:00,
2013-02-04 22:00:00,58.6,54.8,29.74,East,90,2.3,2.3,87,0.00,CLR,,0.00,WeatherDisplay:10.37,2013-02-04 20:00:00,
2013-02-04 22:02:00,58.8,55.3,29.71,East,90,3.1,3.1,88,0.00,CLR,,0.00,WeatherDisplay:10.37,2013-02-04 20:02:00,
2013-02-04 22:04:00,58.8,55.3,29.71,East,90,4.6,4.6,88,0.00,CLR,,0.00,WeatherDisplay:10.37,2013-02-04 20:04:00,
2013-02-04 22:05:00,58.8,55.3,29.71,East,90,2.3,2.3,88,0.00,CLR,,0.00,WeatherDisplay:10.37,2013-02-04 20:05:00,
2013-02-04 22:07:00,58.8,55.3,29.71,ENE,68,2.3,2.3,88,0.00,CLR,,0.00,WeatherDisplay:10.37,2013-02-04 20:07:00,
2013-02-04 22:09:00,58.8,55.3,29.71,ESE,112,2.6,2.6,88,0.00,CLR,,0.00,WeatherDisplay:10.37,2013-02-04 20:09:00,
2013-02-04 22:10:00,58.8,55.3,29.71,SE,135,2.3,2.3,88,0.00,CLR,,0.00,WeatherDisplay:10.37,2013-02-04 20:10:00,
2013-02-04 22:12:00,58.8,55.6,29.71,ESE,112,4.0,4.0,89,0.00,CLR,,0.00,WeatherDisplay:10.37,2013-02-04 20:12:00,
2013-02-04 22:14:00,58.8,55.6,29.71,ESE,112,4.6,4.6,89,0.00,CLR,,0.00,WeatherDisplay:10.37,2013-02-04 20:14:00,
2013-02-04 22:15:00,58.8,55.6,29.71,ESE,112,7.6,7.6,89,0.00,CLR,,0.00,WeatherDisplay:10.37,2013-02-04 20:15:00,
2013-02-04 22:17:00,59.0,56.1,29.74,SE,135,4.6,4.6,90,0.00,CLR,,0.00,WeatherDisplay:10.37,2013-02-04 20:17:00,
2013-02-04 22:19:00,59.0,56.1,29.74,ESE,112,2.3,2.3,90,0.00,CLR,,0.00,WeatherDisplay:10.37,2013-02-04 20:19:00,
2013-02-04 22:20:00,59.0,56.1,29.74,ESE,112,2.3,2.3,90,0.00,CLR,,0.00,WeatherDisplay:10.37,2013-02-04 20:20:00,
2013-02-04 22:23:00,59.2,56.9,29.74,SE,135,6.9,6.9,92,0.00,CLR,,0.00,WeatherDisplay:10.37,2013-02-04 20:23:00,
2013-02-04 22:24:00,59.2,56.9,29.74,SE,135,6.9,6.9,92,0.00,CLR,,0.00,WeatherDisplay:10.37,2013-02-04 20:24:00,
2013-02-04 22:25:00,59.2,56.9,29.74,SE,135,4.6,4.6,92,0.00,CLR,,0.00,WeatherDisplay:10.37,2013-02-04 20:25:00,
2013-02-04 22:28:00,59.2,57.2,29.74,ESE,112,6.9,6.9,93,0.00,CLR,,0.00,WeatherDisplay:10.37,2013-02-04 20:28:00,
2013-02-04 22:30:00,59.2,57.2,29.74,ESE,112,6.9,6.9,93,0.00,CLR,,0.00,WeatherDisplay:10.37,2013-02-04 20:30:00,
2013-02-04 22:33:00,59.2,57.2,29.74,SSE,158,5.8,5.8,93,0.00,CLR,,0.00,WeatherDisplay:10.37,2013-02-04 20:33:00,
2013-02-04 22:35:00,59.2,57.5,29.74,SE,126,3.0,7.0,94,0.00,CLR,,0.00,WeatherDisplay:10.37,2013-02-04 20:35:00,
2013-02-04 22:38:00,59.2,57.5,29.74,SE,135,3.1,3.1,94,0.00,CLR,,0.00,WeatherDisplay:10.37,2013-02-04 20:38:00,
2013-02-04 22:40:00,59.0,57.3,29.74,SE,135,5.8,5.8,94,0.00,CLR,,0.00,WeatherDisplay:10.37,2013-02-04 20:40:00,
2013-02-04 22:43:00,59.0,57.3,29.74,SSE,158,6.2,6.2,94,0.00,CLR,,0.00,WeatherDisplay:10.37,2013-02-04 20:43:00,
2013-02-04 22:45:00,59.0,57.6,29.74,South,180,5.8,5.8,95,0.00,CLR,,0.00,WeatherDisplay:10.37,2013-02-04 20:45:00,
2013-02-04 22:48:00,59.0,57.6,29.71,SSE,158,4.6,4.6,95,0.00,CLR,,0.00,WeatherDisplay:10.37,2013-02-04 20:48:00,
2013-02-04 22:50:00,59.0,57.6,29.71,SE,135,5.8,5.8,95,0.00,CLR,,0.00,WeatherDisplay:10.37,2013-02-04 20:50:00,
2013-02-04 22:53:00,59.2,58.0,29.71,SE,135,3.5,3.5,96,0.00,CLR,,0.00,WeatherDisplay:10.37,2013-02-04 20:53:00,
2013-02-04 22:55:00,59.2,58.0,29.71,SSE,158,4.7,4.7,96,0.00,CLR,,0.00,WeatherDisplay:10.37,2013-02-04 20:55:00,
2013-02-04 22:58:00,59.2,58.0,29.71,ENE,68,9.2,9.2,96,0.00,CLR,,0.00,WeatherDisplay:10.37,2013-02-04 20:58:00,
2013-02-04 23:00:00,59.2,58.0,29.71,SSE,158,4.6,4.6,96,0.00,CLR,,0.00,WeatherDisplay:10.37,2013-02-04 21:00:00,
2013-02-04 23:03:00,59.2,58.0,29.74,ESE,112,4.7,4.7,96,0.00,CLR,,0.00,WeatherDisplay:10.37,2013-02-04 21:03:00,
2013-02-04 23:05:00,59.2,58.0,29.74,SE,135,4.6,4.6,96,0.00,CLR,,0.00,WeatherDisplay:10.37,2013-02-04 21:05:00,
2013-02-04 23:09:00,59.2,58.0,29.74,SE,135,8.1,8.1,96,0.00,CLR,,0.00,WeatherDisplay:10.37,2013-02-04 21:09:00,
2013-02-04 23:10:00,59.2,58.0,29.74,SE,135,8.1,8.1,96,0.00,CLR,,0.00,WeatherDisplay:10.37,2013-02-04 21:10:00,
2013-02-04 23:14:00,59.2,58.0,29.74,SSE,158,5.8,5.8,96,0.00,CLR,,0.00,WeatherDisplay:10.37,2013-02-04 21:14:00,
2013-02-04 23:15:00,59.2,58.0,29.74,South,180,4.6,4.6,96,0.00,CLR,,0.00,WeatherDisplay:10.37,2013-02-04 21:15:00,
2013-02-04 23:19:00,59.2,58.0,29.71,SSE,158,7.1,7.1,96,0.00,CLR,,0.00,WeatherDisplay:10.37,2013-02-04 21:19:00,
2013-02-04 23:21:00,59.2,58.0,29.71,SSE,158,6.9,6.9,96,0.00,CLR,,0.00,WeatherDisplay:10.37,2013-02-04 21:21:00,
2013-02-04 23:24:00,59.2,58.0,29.71,SSE,158,4.6,4.6,96,0.00,CLR,,0.00,WeatherDisplay:10.37,2013-02-04 21:24:00,
2013-02-04 23:26:00,59.2,58.0,29.71,ESE,112,4.6,4.6,96,0.00,CLR,,0.00,WeatherDisplay:10.37,2013-02-04 21:26:00,
2013-02-04 23:29:00,59.2,58.0,29.71,ESE,112,3.5,3.5,96,0.00,CLR,,0.00,WeatherDisplay:10.37,2013-02-04 21:29:00,
2013-02-04 23:31:00,59.2,58.0,29.71,ENE,68,3.5,3.5,96,0.00,CLR,,0.00,WeatherDisplay:10.37,2013-02-04 21:31:00,
2013-02-04 23:34:00,59.2,57.7,29.71,SSE,158,6.9,6.9,95,0.00,CLR,,0.00,WeatherDisplay:10.37,2013-02-04 21:34:00,
2013-02-04 23:36:00,59.2,57.7,29.71,SSE,158,4.6,4.6,95,0.00,CLR,,0.00,WeatherDisplay:10.37,2013-02-04 21:36:00,
2013-02-04 23:39:00,59.4,57.9,29.71,SSE,158,4.6,4.6,95,0.00,CLR,,0.00,WeatherDisplay:10.37,2013-02-04 21:39:00,
2013-02-04 23:41:00,59.4,57.9,29.71,SE,135,3.5,3.5,95,0.00,CLR,,0.00,WeatherDisplay:10.37,2013-02-04 21:41:00,
2013-02-04 23:44:00,59.4,57.9,29.71,SE,135,8.1,8.1,95,0.00,CLR,,0.00,WeatherDisplay:10.37,2013-02-04 21:44:00,
2013-02-04 23:46:00,59.4,57.9,29.74,East,90,4.6,4.6,95,0.00,CLR,,0.00,WeatherDisplay:10.37,2013-02-04 21:46:00,
2013-02-04 23:49:00,59.4,57.9,29.74,ESE,112,6.9,6.9,95,0.00,CLR,,0.00,WeatherDisplay:10.37,2013-02-04 21:49:00,
2013-02-04 23:51:00,59.4,57.6,29.74,SSE,158,4.6,4.6,94,0.00,CLR,,0.00,WeatherDisplay:10.37,2013-02-04 21:51:00,
2013-02-04 23:54:00,59.4,57.6,29.74,South,180,5.8,5.8,94,0.00,CLR,,0.00,WeatherDisplay:10.37,2013-02-04 21:54:00,
2013-02-04 23:56:00,59.4,57.6,29.74,East,90,5.6,5.6,94,0.00,CLR,,0.00,WeatherDisplay:10.37,2013-02-04 21:56:00,
2013-02-04 23:57:00,59.4,57.6,29.74,ENE,68,6.2,6.2,94,0.00,CLR,,0.00,WeatherDisplay:10.37,2013-02-04 21:57:00,
2013-02-04 23:59:00,59.4,57.6,29.74,SSE,158,5.8,6.0,94,0.00,CLR,,0.00,WeatherDisplay:10.37,2013-02-04 21:59:00,